DW0452 Weather Reports


Display with metric or nautical units.
time (UTC)temp
F
wind
direction
speed
MPH
gust
MPH
rain 1hr
in
rain 24hr
in
rain mn
in
humidity
%
barometer
mb
20180423205944 68 105 5.0 11.0 0.00 0.00 0.00 37 1024.0
20180423205904 68 108 7.0 11.0 0.00 0.00 0.00 36 1024.0
20180423205748 69 93 6.0 11.0 0.00 0.00 0.00 36 1024.0
20180423205648 69 95 4.0 11.0 0.00 0.00 0.00 36 1024.1
20180423205546 69 99 3.0 11.0 0.00 0.00 0.00 37 1024.0
20180423205446 69 112 2.0 11.0 0.00 0.00 0.00 39 1024.0
20180423205346 69 127 3.0 11.0 0.00 0.00 0.00 38 1024.0
20180423205247 69 118 5.0 11.0 0.00 0.00 0.00 37 1024.1
20180423205151 69 113 6.0 11.0 0.00 0.00 0.00 36 1024.1
20180423205052 69 110 5.0 11.0 0.00 0.00 0.00 37 1024.0
20180423204952 69 110 4.0 11.0 0.00 0.00 0.00 37 1024.1
20180423204851 69 143 3.0 11.0 0.00 0.00 0.00 36 1024.1
20180423204751 69 92 4.0 11.0 0.00 0.00 0.00 36 1024.0
20180423204651 69 115 5.0 11.0 0.00 0.00 0.00 36 1024.1
20180423204551 69 112 6.0 11.0 0.00 0.00 0.00 37 1024.0
20180423204454 69 99 4.0 12.0 0.00 0.00 0.00 36 1024.0
20180423204354 69 111 2.0 12.0 0.00 0.00 0.00 37 1024.1
20180423204253 69 64 3.0 12.0 0.00 0.00 0.00 37 1024.0
20180423204153 69 116 3.0 12.0 0.00 0.00 0.00 37 1024.1
20180423204053 69 61 4.0 14.0 0.00 0.00 0.00 37 1024.0
20180423203951 69 70 6.0 14.0 0.00 0.00 0.00 37 1024.0
20180423203856 69 130 7.0 14.0 0.00 0.00 0.00 37 1024.0
20180423203757 69 131 6.0 14.0 0.00 0.00 0.00 37 1024.1
20180423203656 69 94 4.0 14.0 0.00 0.00 0.00 37 1024.1
20180423203557 69 93 3.0 14.0 0.00 0.00 0.00 38 1024.0
20180423203457 69 91 4.0 14.0 0.00 0.00 0.00 36 1024.0
20180423203357 69 92 7.0 14.0 0.00 0.00 0.00 36 1024.1
20180423203258 69 109 8.0 14.0 0.00 0.00 0.00 36 1024.1
20180423203201 69 115 7.0 14.0 0.00 0.00 0.00 37 1024.1
20180423203102 69 123 6.0 14.0 0.00 0.00 0.00 37 1024.1
20180423203001 69 105 4.0 14.0 0.00 0.00 0.00 37 1024.1
20180423202901 69 161 4.0 14.0 0.00 0.00 0.00 37 1024.1
20180423202801 69 108 6.0 14.0 0.00 0.00 0.00 38 1024.1
20180423202701 69 99 7.0 14.0 0.00 0.00 0.00 37 1024.1
20180423202601 69 162 8.0 14.0 0.00 0.00 0.00 38 1024.1
20180423202502 69 89 7.0 14.0 0.00 0.00 0.00 36 1024.1
20180423202402 69 140 5.0 14.0 0.00 0.00 0.00 37 1024.0
20180423202302 69 122 6.0 14.0 0.00 0.00 0.00 37 1024.1
20180423202202 69 110 7.0 14.0 0.00 0.00 0.00 36 1024.1
20180423202101 69 146 8.0 14.0 0.00 0.00 0.00 37 1024.2
20180423202001 69 115 8.0 14.0 0.00 0.00 0.00 37 1024.1
20180423201844 69 105 8.0 14.0 0.00 0.00 0.00 37 1024.1
20180423201804 69 118 7.0 14.0 0.00 0.00 0.00 37 1024.1
20180423201645 69 111 7.0 14.0 0.00 0.00 0.00 37 1024.2
20180423201545 69 108 6.0 14.0 0.00 0.00 0.00 37 1024.2
20180423201445 69 114 6.0 11.0 0.00 0.00 0.00 37 1024.2
20180423201346 69 120 5.0 11.0 0.00 0.00 0.00 38 1024.2
20180423201250 69 108 3.0 11.0 0.00 0.00 0.00 38 1024.3
20180423201149 69 133 4.0 11.0 0.00 0.00 0.00 37 1024.2
20180423201047 69 76 4.0 11.0 0.00 0.00 0.00 39 1024.2
20180423200947 69 107 5.0 11.0 0.00 0.00 0.00 37 1024.3
20180423200848 69 91 6.0 11.0 0.00 0.00 0.00 39 1024.2
20180423200748 69 123 6.0 11.0 0.00 0.00 0.00 37 1024.3
20180423200647 69 129 5.0 13.0 0.00 0.00 0.00 38 1024.2
20180423200551 69 121 6.0 13.0 0.00 0.00 0.00 39 1024.3
20180423200450 69 118 6.0 13.0 0.00 0.00 0.00 39 1024.2
20180423200350 69 116 6.0 13.0 0.00 0.00 0.00 37 1024.2
20180423200251 69 117 7.0 14.0 0.00 0.00 0.00 37 1024.2
20180423200152 69 172 7.0 14.0 0.00 0.00 0.00 37 1024.3
20180423200051 69 161 6.0 14.0 0.00 0.00 0.00 38 1024.3
20180423195954 69 131 6.0 14.0 0.00 0.00 0.00 37 1024.3
20180423195854 69 125 7.0 18.0 0.00 0.00 0.00 37 1024.3
20180423195753 69 112 7.0 18.0 0.00 0.00 0.00 37 1024.3
20180423195652 69 93 8.0 18.0 0.00 0.00 0.00 38 1024.3
20180423195552 69 97 8.0 18.0 0.00 0.00 0.00 37 1024.3
20180423195452 69 139 6.0 18.0 0.00 0.00 0.00 38 1024.3
20180423195351 69 152 5.0 18.0 0.00 0.00 0.00 38 1024.3
20180423195256 69 119 7.0 18.0 0.00 0.00 0.00 38 1024.3
20180423195156 69 120 10.0 18.0 0.00 0.00 0.00 37 1024.4
20180423195056 69 122 9.0 18.0 0.00 0.00 0.00 39 1024.4
20180423194954 69 152 7.0 16.0 0.00 0.00 0.00 40 1024.4
20180423194854 69 181 8.0 16.0 0.00 0.00 0.00 39 1024.3
20180423194753 69 168 9.0 16.0 0.00 0.00 0.00 38 1024.4
20180423194653 69 145 7.0 16.0 0.00 0.00 0.00 38 1024.4
20180423194557 69 96 5.0 15.0 0.00 0.00 0.00 39 1024.4
20180423194454 69 119 5.0 15.0 0.00 0.00 0.00 38 1024.3
20180423194354 69 117 7.0 15.0 0.00 0.00 0.00 38 1024.4
20180423194254 69 98 8.0 15.0 0.00 0.00 0.00 38 1024.4
20180423194153 68 97 9.0 15.0 0.00 0.00 0.00 39 1024.4
20180423194051 68 181 8.0 14.0 0.00 0.00 0.00 39 1024.4
20180423193955 68 152 8.0 12.0 0.00 0.00 0.00 38 1024.4
20180423193854 68 97 9.0 12.0 0.00 0.00 0.00 38 1024.4
20180423193754 68 161 9.0 13.0 0.00 0.00 0.00 38 1024.4
20180423193654 68 149 8.0 13.0 0.00 0.00 0.00 37 1024.4
20180423193555 68 141 8.0 15.0 0.00 0.00 0.00 38 1024.4
20180423193454 68 151 7.0 15.0 0.00 0.00 0.00 38 1024.4
20180423193353 68 163 4.0 15.0 0.00 0.00 0.00 39 1024.5
20180423193257 68 124 6.0 15.0 0.00 0.00 0.00 38 1024.5
20180423193156 68 152 7.0 15.0 0.00 0.00 0.00 39 1024.5
20180423193055 68 160 8.0 15.0 0.00 0.00 0.00 38 1024.5
20180423192954 68 155 8.0 15.0 0.00 0.00 0.00 38 1024.5
20180423192854 68 133 9.0 15.0 0.00 0.00 0.00 38 1024.6
20180423192753 68 143 8.0 15.0 0.00 0.00 0.00 38 1024.6
20180423192657 69 141 6.0 15.0 0.00 0.00 0.00 38 1024.6
20180423192557 69 147 8.0 15.0 0.00 0.00 0.00 38 1024.7
20180423192457 69 174 10.0 18.0 0.00 0.00 0.00 37 1024.7
20180423192356 69 145 9.0 18.0 0.00 0.00 0.00 38 1024.8
20180423192256 69 125 9.0 18.0 0.00 0.00 0.00 38 1024.7
20180423192156 69 158 9.0 18.0 0.00 0.00 0.00 37 1024.7
20180423192056 69 141 8.0 18.0 0.00 0.00 0.00 38 1024.8
20180423191959 69 109 6.0 18.0 0.00 0.00 0.00 38 1024.8
20180423191858 68 125 6.0 18.0 0.00 0.00 0.00 39 1024.7
20180423191759 68 132 8.0 18.0 0.00 0.00 0.00 39 1024.7
20180423191659 68 114 8.0 18.0 0.00 0.00 0.00 38 1024.7
20180423191559 68 139 8.0 15.0 0.00 0.00 0.00 38 1024.7
20180423191458 68 143 7.0 15.0 0.00 0.00 0.00 37 1024.6
20180423191358 68 111 5.0 17.0 0.00 0.00 0.00 38 1024.8
20180423191302 68 97 5.0 17.0 0.00 0.00 0.00 38 1024.8
20180423191201 68 125 8.0 17.0 0.00 0.00 0.00 37 1024.8
20180423191102 68 122 10.0 17.0 0.00 0.00 0.00 36 1025.0
20180423191000 68 137 9.0 17.0 0.00 0.00 0.00 39 1025.0
20180423190859 68 100 7.0 17.0 0.00 0.00 0.00 37 1024.9
20180423190759 68 112 8.0 17.0 0.00 0.00 0.00 37 1024.9
20180423190703 68 149 9.0 17.0 0.00 0.00 0.00 37 1025.0
20180423190603 68 174 9.0 17.0 0.00 0.00 0.00 37 1025.0
20180423190502 68 110 10.0 15.0 0.00 0.00 0.00 38 1025.0
20180423190402 68 110 12.0 16.0 0.00 0.00 0.00 37 1025.1
20180423190303 68 179 10.0 16.0 0.00 0.00 0.00 37 1025.1
20180423190204 68 152 8.0 16.0 0.00 0.00 0.00 37 1025.1
20180423190046 68 145 8.0 16.0 0.00 0.00 0.00 37 1025.1
20180423185946 68 151 8.0 16.0 0.00 0.00 0.00 37 1025.2
20180423185846 68 160 10.0 16.0 0.00 0.00 0.00 37 1025.2
20180423185746 68 170 10.0 16.0 0.00 0.00 0.00 37 1025.2
20180423185646 68 151 9.0 16.0 0.00 0.00 0.00 37 1025.2
20180423185544 68 133 7.0 16.0 0.00 0.00 0.00 37 1025.2
20180423185504 68 101 6.0 16.0 0.00 0.00 0.00 38 1025.2
20180423185347 68 75 7.0 16.0 0.00 0.00 0.00 37 1025.2
20180423185247 68 102 6.0 16.0 0.00 0.00 0.00 37 1025.2
20180423185147 68 149 7.0 16.0 0.00 0.00 0.00 37 1025.2
20180423185048 68 121 9.0 16.0 0.00 0.00 0.00 36 1025.2
20180423184948 68 157 7.0 15.0 0.00 0.00 0.00 37 1025.3
20180423184849 68 159 9.0 15.0 0.00 0.00 0.00 36 1025.3
20180423184753 68 152 9.0 15.0 0.00 0.00 0.00 36 1025.3
20180423184652 68 159 8.0 15.0 0.00 0.00 0.00 37 1025.3
20180423184551 68 137 8.0 15.0 0.00 0.00 0.00 37 1025.2
20180423184450 68 119 9.0 15.0 0.00 0.00 0.00 38 1025.3
20180423184351 68 170 8.0 15.0 0.00 0.00 0.00 37 1025.3
20180423184252 68 158 8.0 15.0 0.00 0.00 0.00 38 1025.2
20180423184150 68 152 10.0 15.0 0.00 0.00 0.00 36 1025.3
20180423184055 68 142 9.0 14.0 0.00 0.00 0.00 36 1025.3
20180423183955 68 143 6.0 15.0 0.00 0.00 0.00 37 1025.4
20180423183854 68 90 6.0 12.0 0.00 0.00 0.00 37 1025.3
20180423183754 68 121 8.0 12.0 0.00 0.00 0.00 36 1025.4
20180423183654 68 122 7.0 17.0 0.00 0.00 0.00 35 1025.5
20180423183553 68 142 7.0 17.0 0.00 0.00 0.00 37 1025.5
20180423183459 68 127 7.0 17.0 0.00 0.00 0.00 37 1025.5
20180423183357 68 89 7.0 17.0 0.00 0.00 0.00 37 1025.4
20180423183258 68 152 8.0 17.0 0.00 0.00 0.00 37 1025.4
20180423183159 68 152 7.0 17.0 0.00 0.00 0.00 37 1025.3
20180423183053 68 149 7.0 17.0 0.00 0.00 0.00 37 1025.4
20180423182955 68 150 9.0 17.0 0.00 0.00 0.00 36 1025.4
20180423182853 68 140 10.0 17.0 0.00 0.00 0.00 36 1025.4
20180423182756 68 167 9.0 15.0 0.00 0.00 0.00 37 1025.4
20180423182656 68 160 8.0 18.0 0.00 0.00 0.00 35 1025.5
20180423182556 68 118 5.0 18.0 0.00 0.00 0.00 36 1025.5
20180423182456 68 79 3.0 18.0 0.00 0.00 0.00 38 1025.5
20180423182356 68 118 3.0 18.0 0.00 0.00 0.00 37 1025.5
20180423182256 68 144 4.0 18.0 0.00 0.00 0.00 37 1025.6
20180423182154 68 123 4.0 18.0 0.00 0.00 0.00 38 1025.6
20180423182058 68 153 6.0 18.0 0.00 0.00 0.00 37 1025.6
20180423181958 68 117 10.0 18.0 0.00 0.00 0.00 36 1025.7
20180423181859 68 123 10.0 18.0 0.00 0.00 0.00 35 1025.6
20180423181759 68 181 8.0 14.0 0.00 0.00 0.00 36 1025.7
20180423181658 68 163 7.0 14.0 0.00 0.00 0.00 36 1025.6
20180423181557 68 112 7.0 14.0 0.00 0.00 0.00 37 1025.6
20180423181500 68 129 8.0 14.0 0.00 0.00 0.00 35 1025.6
20180423181359 67 116 8.0 14.0 0.00 0.00 0.00 36 1025.6
20180423181300 67 90 8.0 14.0 0.00 0.00 0.00 37 1025.7
20180423181200 67 153 8.0 14.0 0.00 0.00 0.00 36 1025.7
20180423181059 67 135 9.0 14.0 0.00 0.00 0.00 36 1025.8
20180423180959 67 120 9.0 14.0 0.00 0.00 0.00 36 1025.8
20180423180859 67 120 8.0 14.0 0.00 0.00 0.00 35 1025.8
20180423180802 67 126 7.0 14.0 0.00 0.00 0.00 35 1025.8
20180423180702 67 125 7.0 14.0 0.00 0.00 0.00 34 1025.8
20180423180603 67 118 6.0 14.0 0.00 0.00 0.00 34 1025.8
20180423180502 67 110 5.0 14.0 0.00 0.00 0.00 35 1025.8
20180423180403 67 79 8.0 14.0 0.00 0.00 0.00 34 1025.8
20180423180304 67 130 8.0 14.0 0.00 0.00 0.00 34 1025.8
20180423180148 67 134 7.0 12.0 0.00 0.00 0.00 36 1025.8
20180423180048 67 118 9.0 14.0 0.00 0.00 0.00 36 1025.8
20180423175947 67 143 8.0 14.0 0.00 0.00 0.00 36 1025.7
20180423175847 67 175 6.0 14.0 0.00 0.00 0.00 35 1025.7
20180423175744 67 132 6.0 14.0 0.00 0.00 0.00 34 1025.8
20180423175704 67 157 7.0 14.0 0.00 0.00 0.00 34 1025.8
20180423175547 67 116 6.0 14.0 0.00 0.00 0.00 34 1025.8
20180423175446 67 108 7.0 15.0 0.00 0.00 0.00 35 1025.7
20180423175347 67 102 7.0 15.0 0.00 0.00 0.00 35 1025.8
20180423175246 67 22 6.0 15.0 0.00 0.00 0.00 35 1025.8
20180423175147 67 102 8.0 15.0 0.00 0.00 0.00 33 1025.7
20180423175047 67 117 9.0 15.0 0.00 0.00 0.00 33 1025.7
20180423174947 67 112 7.0 15.0 0.00 0.00 0.00 34 1025.8
20180423174851 67 108 8.0 15.0 0.00 0.00 0.00 34 1025.8
20180423174751 67 113 7.0 15.0 0.00 0.00 0.00 35 1025.8
20180423174649 67 123 4.0 14.0 0.00 0.00 0.00 36 1025.7
20180423174548 67 93 6.0 14.0 0.00 0.00 0.00 35 1025.8
20180423174448 67 120 6.0 14.0 0.00 0.00 0.00 34 1025.8
20180423174347 67 119 7.0 14.0 0.00 0.00 0.00 35 1025.7
20180423174253 67 96 7.0 15.0 0.00 0.00 0.00 36 1025.8
20180423174153 66 79 7.0 15.0 0.00 0.00 0.00 35 1025.9
20180423174052 67 157 10.0 15.0 0.00 0.00 0.00 33 1025.8
20180423173951 67 155 8.0 15.0 0.00 0.00 0.00 33 1025.9
20180423173852 67 118 6.0 15.0 0.00 0.00 0.00 34 1025.9
20180423173751 67 98 6.0 15.0 0.00 0.00 0.00 33 1026.0
20180423173650 67 102 8.0 15.0 0.00 0.00 0.00 33 1026.0
20180423173555 67 79 9.0 15.0 0.00 0.00 0.00 33 1026.0
20180423173455 67 172 8.0 15.0 0.00 0.00 0.00 34 1026.0
20180423173354 67 152 6.0 15.0 0.00 0.00 0.00 35 1026.0
20180423173253 67 139 7.0 15.0 0.00 0.00 0.00 36 1026.1
20180423173152 67 141 8.0 15.0 0.00 0.00 0.00 35 1026.1
20180423173051 67 149 6.0 13.0 0.00 0.00 0.00 34 1026.0
20180423172951 67 145 4.0 13.0 0.00 0.00 0.00 34 1026.0
20180423172854 66 105 5.0 13.0 0.00 0.00 0.00 35 1026.0
20180423172754 66 95 8.0 13.0 0.00 0.00 0.00 34 1026.0
20180423172653 66 142 9.0 13.0 0.00 0.00 0.00 35 1026.1
20180423172555 66 131 8.0 14.0 0.00 0.00 0.00 33 1026.1
20180423172454 66 146 6.0 14.0 0.00 0.00 0.00 35 1026.1
20180423172352 66 153 8.0 14.0 0.00 0.00 0.00 34 1026.1
20180423172256 66 174 8.0 14.0 0.00 0.00 0.00 33 1026.1
20180423172156 66 120 7.0 14.0 0.00 0.00 0.00 35 1026.2
20180423172056 66 129 6.0 14.0 0.00 0.00 0.00 34 1026.1
20180423171955 66 143 7.0 14.0 0.00 0.00 0.00 34 1026.3
20180423171855 66 169 9.0 14.0 0.00 0.00 0.00 32 1026.3
20180423171754 66 148 8.0 14.0 0.00 0.00 0.00 34 1026.4
20180423171652 66 153 7.0 13.0 0.00 0.00 0.00 34 1026.3
20180423171556 66 170 7.0 13.0 0.00 0.00 0.00 35 1026.3
20180423171456 66 139 8.0 13.0 0.00 0.00 0.00 34 1026.2
20180423171356 66 102 7.0 15.0 0.00 0.00 0.00 34 1026.4
20180423171254 66 95 7.0 15.0 0.00 0.00 0.00 36 1026.3
20180423171153 66 104 6.0 15.0 0.00 0.00 0.00 37 1026.4
20180423171051 66 126 6.0 15.0 0.00 0.00 0.00 35 1026.3
20180423170955 66 137 9.0 15.0 0.00 0.00 0.00 34 1026.3
20180423170853 66 127 7.0 15.0 0.00 0.00 0.00 34 1026.3
20180423170753 66 131 6.0 15.0 0.00 0.00 0.00 34 1026.4
20180423170654 66 120 8.0 15.0 0.00 0.00 0.00 33 1026.4
20180423170554 65 157 9.0 15.0 0.00 0.00 0.00 35 1026.5
20180423170453 65 131 7.0 15.0 0.00 0.00 0.00 34 1026.4
20180423170351 65 107 6.0 15.0 0.00 0.00 0.00 36 1026.4
20180423170256 65 102 6.0 15.0 0.00 0.00 0.00 35 1026.4
20180423170157 65 114 9.0 15.0 0.00 0.00 0.00 34 1026.4
20180423170057 65 115 9.0 15.0 0.00 0.00 0.00 34 1026.5
20180423165958 65 126 10.0 15.0 0.00 0.00 0.00 33 1026.4
20180423165857 65 142 10.0 15.0 0.00 0.00 0.00 34 1026.6
20180423165757 65 131 7.0 14.0 0.00 0.00 0.00 35 1026.7
20180423165701 65 139 6.0 13.0 0.00 0.00 0.00 35 1026.6
20180423165601 65 98 6.0 16.0 0.00 0.00 0.00 35 1026.7
20180423165501 65 106 5.0 16.0 0.00 0.00 0.00 36 1026.6
20180423165402 65 128 4.0 16.0 0.00 0.00 0.00 35 1026.6
20180423165301 65 114 4.0 16.0 0.00 0.00 0.00 36 1026.6
20180423165202 65 108 5.0 16.0 0.00 0.00 0.00 36 1026.6
20180423165101 65 97 6.0 16.0 0.00 0.00 0.00 35 1026.7
20180423165004 65 127 8.0 16.0 0.00 0.00 0.00 34 1026.7
20180423164903 65 187 10.0 16.0 0.00 0.00 0.00 34 1026.8
20180423164803 65 172 9.0 17.0 0.00 0.00 0.00 33 1026.7
20180423164701 65 113 8.0 15.0 0.00 0.00 0.00 35 1026.7
20180423164601 65 161 8.0 15.0 0.00 0.00 0.00 34 1026.9
20180423164501 65 148 9.0 15.0 0.00 0.00 0.00 34 1026.8
20180423164344 65 153 10.0 15.0 0.00 0.00 0.00 34 1026.9
20180423164304 65 127 9.0 15.0 0.00 0.00 0.00 34 1026.9
20180423164203 65 144 7.0 16.0 0.00 0.00 0.00 36 1026.9
20180423164103 65 149 6.0 13.0 0.00 0.00 0.00 35 1027.0
20180423164004 65 117 7.0 13.0 0.00 0.00 0.00 34 1027.0
20180423163904 65 142 6.0 11.0 0.00 0.00 0.00 33 1027.0
20180423163747 65 127 4.0 15.0 0.00 0.00 0.00 36 1027.0
20180423163646 64 119 3.0 15.0 0.00 0.00 0.00 36 1027.0
20180423163547 64 102 4.0 15.0 0.00 0.00 0.00 36 1027.0
20180423163447 64 85 4.0 15.0 0.00 0.00 0.00 35 1027.0
20180423163346 64 93 3.0 15.0 0.00 0.00 0.00 35 1027.1
20180423163247 64 99 4.0 15.0 0.00 0.00 0.00 36 1027.0
20180423163146 64 110 8.0 15.0 0.00 0.00 0.00 34 1027.1
20180423163051 64 111 9.0 15.0 0.00 0.00 0.00 34 1027.1
20180423162950 64 114 7.0 15.0 0.00 0.00 0.00 35 1027.1
20180423162849 64 112 8.0 15.0 0.00 0.00 0.00 34 1027.1
20180423162749 64 125 9.0 15.0 0.00 0.00 0.00 33 1027.2
20180423162648 64 104 8.0 15.0 0.00 0.00 0.00 36 1027.2
20180423162546 64 156 8.0 15.0 0.00 0.00 0.00 35 1027.1
20180423162450 64 108 8.0 15.0 0.00 0.00 0.00 35 1027.2
20180423162350 64 96 8.0 15.0 0.00 0.00 0.00 36 1027.1
20180423162249 64 107 7.0 15.0 0.00 0.00 0.00 35 1027.2
20180423162149 64 172 7.0 15.0 0.00 0.00 0.00 35 1027.2
20180423162048 64 98 9.0 15.0 0.00 0.00 0.00 33 1027.2
20180423161948 64 147 10.0 15.0 0.00 0.00 0.00 34 1027.2
20180423161847 64 137 10.0 16.0 0.00 0.00 0.00 34 1027.2
20180423161750 64 100 6.0 14.0 0.00 0.00 0.00 35 1027.2
20180423161650 64 106 6.0 14.0 0.00 0.00 0.00 37 1027.3
20180423161548 64 119 8.0 14.0 0.00 0.00 0.00 35 1027.2
20180423161447 64 167 7.0 14.0 0.00 0.00 0.00 35 1027.2
20180423161347 64 119 5.0 13.0 0.00 0.00 0.00 36 1027.2
20180423161246 64 93 4.0 13.0 0.00 0.00 0.00 36 1027.3
20180423161151 63 124 6.0 13.0 0.00 0.00 0.00 37 1027.2
20180423161051 63 95 6.0 13.0 0.00 0.00 0.00 36 1027.3
20180423160949 63 97 8.0 13.0 0.00 0.00 0.00 35 1027.4
20180423160848 64 93 9.0 13.0 0.00 0.00 0.00 35 1027.4
20180423160747 64 137 7.0 13.0 0.00 0.00 0.00 37 1027.5
20180423160647 64 113 7.0 11.0 0.00 0.00 0.00 36 1027.5
20180423160546 64 160 6.0 11.0 0.00 0.00 0.00 36 1027.6
20180423160449 64 97 5.0 13.0 0.00 0.00 0.00 36 1027.6
20180423160400 64 101 4.0 13.0 0.00 0.00 0.00 36 1027.6
20180423160303 63 122 4.0 13.0 0.00 0.00 0.00 37 1027.5
20180423160203 63 95 5.0 13.0 0.00 0.00 0.00 37 1027.5
20180423160103 63 96 6.0 13.0 0.00 0.00 0.00 37 1027.5
20180423160002 63 87 5.0 13.0 0.00 0.00 0.00 35 1027.5
20180423155846 63 114 6.0 13.0 0.00 0.00 0.00 37 1027.6
20180423155745 63 131 7.0 13.0 0.00 0.00 0.00 35 1027.6
20180423155645 63 112 7.0 14.0 0.00 0.00 0.00 36 1027.5
20180423155544 63 126 6.0 13.0 0.00 0.00 0.00 37 1027.7
20180423155504 63 95 6.0 13.0 0.00 0.00 0.00 36 1027.7
20180423155403 63 157 9.0 13.0 0.00 0.00 0.00 36 1027.6
20180423155258 63 107 8.0 13.0 0.00 0.00 0.00 36 1027.7
20180423155202 62 120 5.0 13.0 0.00 0.00 0.00 36 1027.7
20180423155101 62 102 4.0 14.0 0.00 0.00 0.00 36 1027.7
20180423154959 62 91 4.0 14.0 0.00 0.00 0.00 36 1027.7
20180423154858 62 120 5.0 14.0 0.00 0.00 0.00 37 1027.7
20180423154759 62 153 7.0 14.0 0.00 0.00 0.00 36 1027.7
20180423154657 62 104 6.0 14.0 0.00 0.00 0.00 37 1027.7
20180423154558 62 131 5.0 14.0 0.00 0.00 0.00 37 1027.7
20180423154502 62 60 7.0 14.0 0.00 0.00 0.00 36 1027.8
20180423154402 62 103 8.0 14.0 0.00 0.00 0.00 36 1027.7
20180423154301 62 171 8.0 14.0 0.00 0.00 0.00 36 1027.7
20180423154202 62 137 7.0 14.0 0.00 0.00 0.00 37 1027.8
20180423154101 62 111 6.0 12.0 0.00 0.00 0.00 36 1027.7
20180423154000 62 95 5.0 12.0 0.00 0.00 0.00 38 1027.8
20180423153859 62 118 6.0 12.0 0.00 0.00 0.00 37 1027.8
20180423153802 62 111 6.0 13.0 0.00 0.00 0.00 36 1027.8
20180423153703 62 122 5.0 14.0 0.00 0.00 0.00 38 1027.9
20180423153602 61 117 5.0 14.0 0.00 0.00 0.00 38 1027.8
20180423153502 61 113 7.0 14.0 0.00 0.00 0.00 37 1027.8
20180423153402 61 120 7.0 14.0 0.00 0.00 0.00 37 1027.8
20180423153301 61 145 7.0 14.0 0.00 0.00 0.00 38 1027.8
20180423153144 61 136 8.0 14.0 0.00 0.00 0.00 37 1028.0
20180423153103 61 123 8.0 14.0 0.00 0.00 0.00 36 1028.0
20180423153003 61 106 10.0 14.0 0.00 0.00 0.00 36 1027.9
20180423152904 61 154 6.0 14.0 0.00 0.00 0.00 37 1027.9
20180423152804 61 114 4.0 14.0 0.00 0.00 0.00 39 1028.0
20180423152644 61 89 8.0 14.0 0.00 0.00 0.00 37 1028.0
20180423152548 61 164 7.0 14.0 0.00 0.00 0.00 36 1028.0
20180423152447 61 154 6.0 12.0 0.00 0.00 0.00 39 1028.1
20180423152348 61 110 6.0 12.0 0.00 0.00 0.00 37 1028.1
20180423152248 61 95 6.0 11.0 0.00 0.00 0.00 38 1028.1
20180423152147 61 123 7.0 11.0 0.00 0.00 0.00 38 1028.1
20180423152045 61 115 5.0 11.0 0.00 0.00 0.00 38 1028.1
20180423151944 60 111 4.0 12.0 0.00 0.00 0.00 38 1028.1
20180423151848 60 122 5.0 12.0 0.00 0.00 0.00 38 1028.1
20180423151747 60 128 6.0 12.0 0.00 0.00 0.00 37 1028.2
20180423151648 60 137 5.0 12.0 0.00 0.00 0.00 38 1028.2
20180423151545 60 110 7.0 12.0 0.00 0.00 0.00 37 1028.1
20180423151445 60 140 8.0 12.0 0.00 0.00 0.00 37 1028.0
20180423151344 60 157 7.0 12.0 0.00 0.00 0.00 38 1028.1
20180423151248 60 151 7.0 12.0 0.00 0.00 0.00 36 1028.2
20180423151148 60 128 8.0 12.0 0.00 0.00 0.00 36 1028.2
20180423151048 60 129 7.0 13.0 0.00 0.00 0.00 37 1028.1
20180423150947 60 113 6.0 13.0 0.00 0.00 0.00 38 1028.2
20180423150846 60 125 7.0 13.0 0.00 0.00 0.00 37 1028.2
20180423150747 60 154 7.0 13.0 0.00 0.00 0.00 38 1028.2
20180423150647 60 115 7.0 13.0 0.00 0.00 0.00 37 1028.2
20180423150550 60 117 6.0 13.0 0.00 0.00 0.00 37 1028.3
20180423150448 60 129 7.0 13.0 0.00 0.00 0.00 37 1028.2
20180423150348 60 110 9.0 13.0 0.00 0.00 0.00 36 1028.2
20180423150248 60 121 7.0 12.0 0.00 0.00 0.00 36 1028.2
20180423150147 60 103 6.0 9.0 0.00 0.00 0.00 38 1028.3
20180423150046 60 147 6.0 9.0 0.00 0.00 0.00 37 1028.3
20180423145950 60 143 6.0 9.0 0.00 0.00 0.00 37 1028.3
20180423145850 60 142 5.0 14.0 0.00 0.00 0.00 38 1028.4
20180423145749 60 99 3.0 14.0 0.00 0.00 0.00 41 1028.4
20180423145648 60 91 3.0 14.0 0.00 0.00 0.00 38 1028.4
20180423145547 60 129 3.0 14.0 0.00 0.00 0.00 39 1028.4
20180423145446 59 107 4.0 14.0 0.00 0.00 0.00 39 1028.4
20180423145346 59 109 5.0 14.0 0.00 0.00 0.00 39 1028.3
20180423145251 59 121 7.0 14.0 0.00 0.00 0.00 37 1028.3
20180423145151 59 129 8.0 14.0 0.00 0.00 0.00 37 1028.3
20180423145050 59 95 7.0 14.0 0.00 0.00 0.00 37 1028.3
20180423144949 59 89 6.0 13.0 0.00 0.00 0.00 37 1028.3
20180423144849 59 122 6.0 13.0 0.00 0.00 0.00 38 1028.3
20180423144748 59 149 7.0 13.0 0.00 0.00 0.00 37 1028.4
20180423144651 59 149 7.0 13.0 0.00 0.00 0.00 36 1028.4
20180423144550 59 158 5.0 12.0 0.00 0.00 0.00 37 1028.3
20180423144446 59 160 5.0 12.0 0.00 0.00 0.00 37 1028.4
20180423144346 59 102 5.0 12.0 0.00 0.00 0.00 37 1028.4
20180423144245 59 102 6.0 12.0 0.00 0.00 0.00 35 1028.5
20180423144144 59 93 5.0 12.0 0.00 0.00 0.00 39 1028.4
20180423144103 59 92 5.0 12.0 0.00 0.00 0.00 39 1028.4
20180423143946 59 115 6.0 12.0 0.00 0.00 0.00 36 1028.5
20180423143846 59 152 6.0 11.0 0.00 0.00 0.00 36 1028.4
20180423143745 59 135 5.0 11.0 0.00 0.00 0.00 37 1028.5
20180423143705 59 95 5.0 11.0 0.00 0.00 0.00 37 1028.5
20180423143604 59 82 4.0 11.0 0.00 0.00 0.00 38 1028.5
20180423143503 59 94 4.0 11.0 0.00 0.00 0.00 38 1028.5
20180423143403 59 140 4.0 11.0 0.00 0.00 0.00 37 1028.4
20180423143246 59 149 4.0 11.0 0.00 0.00 0.00 39 1028.5
20180423143147 58 125 6.0 11.0 0.00 0.00 0.00 36 1028.4
20180423143046 59 144 8.0 11.0 0.00 0.00 0.00 36 1028.4
20180423142946 59 147 6.0 11.0 0.00 0.00 0.00 37 1028.4
20180423142846 58 101 4.0 10.0 0.00 0.00 0.00 38 1028.5
20180423142746 58 127 3.0 10.0 0.00 0.00 0.00 38 1028.5
20180423142646 58 102 3.0 10.0 0.00 0.00 0.00 39 1028.5
20180423142550 58 118 5.0 10.0 0.00 0.00 0.00 38 1028.6
20180423142449 58 156 5.0 10.0 0.00 0.00 0.00 38 1028.6
20180423142349 58 119 4.0 10.0 0.00 0.00 0.00 38 1028.6
20180423142248 58 116 4.0 10.0 0.00 0.00 0.00 38 1028.6
20180423142147 58 154 5.0 10.0 0.00 0.00 0.00 38 1028.6
20180423142045 58 137 4.0 9.0 0.00 0.00 0.00 38 1028.6
20180423141944 58 125 3.0 9.0 0.00 0.00 0.00 38 1028.6
20180423141847 58 140 3.0 9.0 0.00 0.00 0.00 39 1028.6
20180423141748 58 152 3.0 10.0 0.00 0.00 0.00 39 1028.7
20180423141647 57 118 4.0 10.0 0.00 0.00 0.00 37 1028.6
20180423141547 58 108 5.0 10.0 0.00 0.00 0.00 37 1028.7
20180423141446 58 127 5.0 10.0 0.00 0.00 0.00 38 1028.7
20180423141345 58 109 4.0 10.0 0.00 0.00 0.00 37 1028.7
20180423141246 58 97 3.0 10.0 0.00 0.00 0.00 39 1028.7
20180423141148 57 92 5.0 10.0 0.00 0.00 0.00 37 1028.7
20180423141048 57 124 6.0 10.0 0.00 0.00 0.00 37 1028.8
20180423140948 57 139 6.0 9.0 0.00 0.00 0.00 37 1028.6
20180423140849 57 125 6.0 9.0 0.00 0.00 0.00 36 1028.6
20180423140748 58 131 5.0 9.0 0.00 0.00 0.00 36 1028.7
20180423140647 57 153 4.0 9.0 0.00 0.00 0.00 37 1028.7
20180423140546 57 121 4.0 8.0 0.00 0.00 0.00 37 1028.8
20180423140450 57 131 3.0 11.0 0.00 0.00 0.00 39 1028.6
20180423140350 57 104 3.0 11.0 0.00 0.00 0.00 39 1028.8
20180423140250 57 114 3.0 11.0 0.00 0.00 0.00 39 1028.6
20180423140151 57 105 3.0 11.0 0.00 0.00 0.00 39 1028.7
20180423140050 57 101 4.0 11.0 0.00 0.00 0.00 38 1028.7
20180423135950 57 112 4.0 11.0 0.00 0.00 0.00 39 1028.7
20180423135853 57 106 5.0 11.0 0.00 0.00 0.00 38 1028.7
20180423135752 56 115 6.0 11.0 0.00 0.00 0.00 37 1028.7
20180423135651 56 118 5.0 11.0 0.00 0.00 0.00 39 1028.7
20180423135551 56 177 4.0 10.0 0.00 0.00 0.00 39 1028.8
20180423135449 56 113 6.0 12.0 0.00 0.00 0.00 38 1028.7
20180423135349 56 160 4.0 12.0 0.00 0.00 0.00 38 1028.8
20180423135248 56 97 4.0 12.0 0.00 0.00 0.00 38 1028.7
20180423135151 56 111 4.0 12.0 0.00 0.00 0.00 38 1028.9
20180423135051 56 93 3.0 12.0 0.00 0.00 0.00 40 1028.8
20180423134949 56 111 3.0 12.0 0.00 0.00 0.00 39 1028.8
20180423134849 56 108 4.0 12.0 0.00 0.00 0.00 38 1028.9
20180423134749 56 100 6.0 12.0 0.00 0.00 0.00 37 1028.8
20180423134649 56 112 6.0 12.0 0.00 0.00 0.00 38 1028.9
20180423134553 56 122 4.0 9.0 0.00 0.00 0.00 38 1028.9
20180423134452 55 104 5.0 9.0 0.00 0.00 0.00 38 1029.0
20180423134352 55 97 4.0 9.0 0.00 0.00 0.00 38 1028.9
20180423134251 55 64 4.0 9.0 0.00 0.00 0.00 38 1028.9
20180423134150 55 129 5.0 9.0 0.00 0.00 0.00 37 1028.9
20180423134048 55 126 6.0 9.0 0.00 0.00 0.00 38 1029.0
20180423133948 55 103 6.0 9.0 0.00 0.00 0.00 37 1029.0
20180423133848 55 108 4.0 9.0 0.00 0.00 0.00 37 1029.1
20180423133752 55 112 3.0 9.0 0.00 0.00 0.00 38 1029.0
20180423133652 55 110 4.0 9.0 0.00 0.00 0.00 38 1029.0
20180423133550 55 112 5.0 9.0 0.00 0.00 0.00 38 1028.9
20180423133450 55 89 4.0 9.0 0.00 0.00 0.00 38 1029.1
20180423133349 55 122 2.0 7.0 0.00 0.00 0.00 39 1029.0
20180423133248 55 96 1.0 7.0 0.00 0.00 0.00 41 1029.0
20180423133154 54 85 2.0 7.0 0.00 0.00 0.00 40 1029.0
20180423133053 54 115 3.0 7.0 0.00 0.00 0.00 40 1028.9
20180423132952 54 118 2.0 7.0 0.00 0.00 0.00 41 1029.0
20180423132851 54 131 2.0 8.0 0.00 0.00 0.00 40 1029.1
20180423132750 54 143 2.0 9.0 0.00 0.00 0.00 40 1029.1
20180423132648 54 73 2.0 9.0 0.00 0.00 0.00 40 1029.1
20180423132546 53 114 2.0 9.0 0.00 0.00 0.00 40 1029.2
20180423132449 53 84 2.0 9.0 0.00 0.00 0.00 40 1029.1
20180423132347 53 72 4.0 9.0 0.00 0.00 0.00 39 1029.1
20180423132247 53 115 4.0 9.0 0.00 0.00 0.00 39 1029.1
20180423132147 53 114 4.0 9.0 0.00 0.00 0.00 40 1029.2
20180423132046 53 102 5.0 9.0 0.00 0.00 0.00 41 1029.2
20180423131946 53 98 4.0 9.0 0.00 0.00 0.00 40 1029.2
20180423131846 52 130 3.0 9.0 0.00 0.00 0.00 41 1029.2
20180423131750 52 118 4.0 9.0 0.00 0.00 0.00 40 1029.2
20180423131650 52 130 4.0 9.0 0.00 0.00 0.00 40 1029.1
20180423131550 52 112 3.0 8.0 0.00 0.00 0.00 41 1029.2
20180423131449 52 96 4.0 8.0 0.00 0.00 0.00 41 1029.2
20180423131349 52 101 4.0 8.0 0.00 0.00 0.00 41 1029.2
20180423131247 52 96 3.0 9.0 0.00 0.00 0.00 41 1029.2
20180423131148 52 98 3.0 9.0 0.00 0.00 0.00 43 1029.2
20180423131051 52 83 2.0 9.0 0.00 0.00 0.00 42 1029.2
20180423130951 51 84 2.0 11.0 0.00 0.00 0.00 43 1029.2
20180423130849 51 129 2.0 11.0 0.00 0.00 0.00 42 1029.2
20180423130748 51 135 4.0 11.0 0.00 0.00 0.00 41 1029.2
20180423130712 51 127 5.0 11.0 0.00 0.00 0.00 41 1029.2
20180423130610 51 98 5.0 11.0 0.00 0.00 0.00 41 1029.3
20180423130531 51 100 4.0 11.0 0.00 0.00 0.00 41 1029.2
20180423130429 51 120 3.0 11.0 0.00 0.00 0.00 42 1029.2
20180423130329 51 98 5.0 11.0 0.00 0.00 0.00 42 1029.2
20180423130233 51 122 5.0 11.0 0.00 0.00 0.00 41 1029.2
20180423130129 51 118 5.0 8.0 0.00 0.00 0.00 41 1029.2
20180423130026 50 117 5.0 8.0 0.00 0.00 0.00 41 1029.2
20180423125926 50 111 4.0 8.0 0.00 0.00 0.00 41 1029.3
20180423125823 50 140 3.0 8.0 0.00 0.00 0.00 42 1029.3
20180423125723 50 118 4.0 8.0 0.00 0.00 0.00 41 1029.3
20180423125620 50 106 5.0 8.0 0.00 0.00 0.00 41 1029.2
20180423125517 50 131 3.0 8.0 0.00 0.00 0.00 43 1029.3
20180423125417 50 129 1.0 8.0 0.00 0.00 0.00 43 1029.2
20180423125318 50 102 3.0 8.0 0.00 0.00 0.00 43 1029.2
20180423125218 50 102 3.0 9.0 0.00 0.00 0.00 43 1029.2
20180423125118 50 130 2.0 9.0 0.00 0.00 0.00 44 1029.4
20180423125017 50 117 3.0 9.0 0.00 0.00 0.00 44 1029.3
20180423124921 50 105 3.0 9.0 0.00 0.00 0.00 43 1029.3
20180423124821 50 103 3.0 9.0 0.00 0.00 0.00 43 1029.3
20180423124721 49 108 4.0 9.0 0.00 0.00 0.00 42 1029.3
20180423124617 49 64 6.0 9.0 0.00 0.00 0.00 42 1029.2
20180423124514 49 91 6.0 9.0 0.00 0.00 0.00 42 1029.3
20180423124411 49 127 6.0 9.0 0.00 0.00 0.00 42 1029.3
20180423124307 49 116 4.0 9.0 0.00 0.00 0.00 43 1029.3
20180423124204 49 120 4.0 9.0 0.00 0.00 0.00 43 1029.4
20180423124101 49 111 5.0 9.0 0.00 0.00 0.00 43 1029.3
20180423123958 49 107 4.0 9.0 0.00 0.00 0.00 43 1029.3
20180423123855 49 100 3.0 9.0 0.00 0.00 0.00 43 1029.4
20180423123753 49 112 2.0 9.0 0.00 0.00 0.00 43 1029.4
20180423123650 49 120 2.0 9.0 0.00 0.00 0.00 44 1029.4
20180423123555 49 108 4.0 9.0 0.00 0.00 0.00 43 1029.3
20180423123452 49 92 4.0 9.0 0.00 0.00 0.00 44 1029.3
20180423123350 49 114 3.0 8.0 0.00 0.00 0.00 44 1029.4
20180423123250 49 114 2.0 9.0 0.00 0.00 0.00 43 1029.4
20180423123147 49 135 3.0 9.0 0.00 0.00 0.00 44 1029.3
20180423123045 49 84 3.0 9.0 0.00 0.00 0.00 44 1029.4
20180423122942 48 146 3.0 10.0 0.00 0.00 0.00 43 1029.3
20180423122840 48 119 4.0 10.0 0.00 0.00 0.00 44 1029.2
20180423122737 48 105 4.0 10.0 0.00 0.00 0.00 43 1029.3
20180423122633 48 121 4.0 10.0 0.00 0.00 0.00 44 1029.3
20180423122529 48 107 4.0 10.0 0.00 0.00 0.00 43 1029.3
20180423122428 48 116 4.0 10.0 0.00 0.00 0.00 44 1029.3
20180423122324 48 89 4.0 10.0 0.00 0.00 0.00 44 1029.3
20180423122223 48 104 4.0 10.0 0.00 0.00 0.00 44 1029.4
20180423122119 48 115 3.0 8.0 0.00 0.00 0.00 45 1029.3
20180423122014 47 93 4.0 8.0 0.00 0.00 0.00 44 1029.4
20180423121913 47 110 5.0 8.0 0.00 0.00 0.00 43 1029.4
20180423121752 47 131 5.0 8.0 0.00 0.00 0.00 44 1029.3
20180423121651 47 137 3.0 7.0 0.00 0.00 0.00 44 1029.3
20180423121551 47 120 3.0 7.0 0.00 0.00 0.00 45 1029.3
20180423121448 47 108 4.0 7.0 0.00 0.00 0.00 44 1029.3
20180423121352 47 116 3.0 7.0 0.00 0.00 0.00 44 1029.3
20180423121252 47 106 3.0 6.0 0.00 0.00 0.00 45 1029.3
20180423121152 47 110 3.0 8.0 0.00 0.00 0.00 44 1029.2
20180423121052 47 119 3.0 8.0 0.00 0.00 0.00 45 1029.3
20180423120952 47 99 2.0 8.0 0.00 0.00 0.00 45 1029.3
20180423120852 47 111 3.0 8.0 0.00 0.00 0.00 45 1029.2
20180423120752 46 100 3.0 8.0 0.00 0.00 0.00 45 1029.2
20180423120656 46 120 2.0 8.0 0.00 0.00 0.00 46 1029.2
20180423120555 46 102 1.0 8.0 0.00 0.00 0.00 46 1029.2
20180423120454 46 129 2.0 8.0 0.00 0.00 0.00 46 1029.2
20180423120355 46 96 3.0 8.0 0.00 0.00 0.00 46 1029.2
20180423120254 46 119 3.0 7.0 0.00 0.00 0.00 46 1029.2
20180423120152 46 99 3.0 7.0 0.00 0.00 0.00 45 1029.3
20180423120056 46 126 4.0 7.0 0.00 0.00 0.00 46 1029.3
20180423115955 46 102 4.0 7.0 0.00 0.00 0.00 46 1029.2
20180423115855 46 91 4.0 7.0 0.00 0.00 0.00 46 1029.3
20180423115755 46 109 5.0 7.0 0.00 0.00 0.00 45 1029.3
20180423115654 45 110 4.0 7.0 0.00 0.00 0.00 46 1029.2
20180423115555 45 112 3.0 7.0 0.00 0.00 0.00 46 1029.2
20180423115454 45 112 3.0 7.0 0.00 0.00 0.00 46 1029.2
20180423115358 45 114 2.0 7.0 0.00 0.00 0.00 46 1029.2
20180423115258 45 113 2.0 7.0 0.00 0.00 0.00 47 1029.2
20180423115158 45 113 2.0 7.0 0.00 0.00 0.00 47 1029.2
20180423115058 45 113 3.0 7.0 0.00 0.00 0.00 47 1029.1
20180423114959 44 106 3.0 7.0 0.00 0.00 0.00 47 1029.1
20180423114859 44 108 3.0 7.0 0.00 0.00 0.00 48 1029.2
20180423114744 44 108 3.0 7.0 0.00 0.00 0.00 48 1029.1
20180423114644 44 103 3.0 7.0 0.00 0.00 0.00 48 1029.1
20180423114545 44 100 2.0 6.0 0.00 0.00 0.00 49 1029.1
20180423114444 43 93 2.0 6.0 0.00 0.00 0.00 50 1029.1
20180423114405 43 88 2.0 6.0 0.00 0.00 0.00 50 1029.1
20180423114302 43 125 2.0 6.0 0.00 0.00 0.00 50 1029.1
20180423114147 43 129 2.0 6.0 0.00 0.00 0.00 50 1029.2
20180423114049 43 95 2.0 6.0 0.00 0.00 0.00 50 1029.1
20180423113950 43 118 2.0 5.0 0.00 0.00 0.00 50 1029.2
20180423113850 43 104 1.0 5.0 0.00 0.00 0.00 51 1029.1
20180423113750 42 107 1.0 5.0 0.00 0.00 0.00 51 1029.1
20180423113651 42 104 2.0 5.0 0.00 0.00 0.00 51 1029.1
20180423113549 42 98 2.0 5.0 0.00 0.00 0.00 51 1029.1
20180423113455 42 114 2.0 5.0 0.00 0.00 0.00 51 1029.1
20180423113354 42 118 2.0 4.0 0.00 0.00 0.00 51 1029.0
20180423113255 42 118 2.0 4.0 0.00 0.00 0.00 51 1029.0
20180423113156 42 118 2.0 4.0 0.00 0.00 0.00 52 1029.0
20180423113057 42 114 1.0 4.0 0.00 0.00 0.00 52 1028.9
20180423112958 42 117 1.0 4.0 0.00 0.00 0.00 52 1029.0
20180423112844 42 113 2.0 7.0 0.00 0.00 0.00 52 1029.0
20180423112745 41 113 1.0 7.0 0.00 0.00 0.00 53 1029.1
20180423112647 41 116 2.0 7.0 0.00 0.00 0.00 52 1029.0
20180423112546 41 116 2.0 7.0 0.00 0.00 0.00 52 1029.0
20180423112505 41 118 2.0 7.0 0.00 0.00 0.00 52 1029.0
20180423112402 41 108 2.0 7.0 0.00 0.00 0.00 53 1029.1
20180423112245 41 100 2.0 7.0 0.00 0.00 0.00 53 1029.0
20180423112206 41 103 2.0 7.0 0.00 0.00 0.00 53 1029.0
20180423112103 41 100 3.0 7.0 0.00 0.00 0.00 53 1029.0
20180423112001 40 110 2.0 3.0 0.00 0.00 0.00 53 1028.9
20180423111859 40 139 1.0 3.0 0.00 0.00 0.00 54 1028.8
20180423111800 40 143 1.0 3.0 0.00 0.00 0.00 54 1028.9
20180423111701 40 93 1.0 3.0 0.00 0.00 0.00 53 1028.8
20180423111602 40 93 1.0 3.0 0.00 0.00 0.00 53 1028.9
20180423111500 40 112 1.0 3.0 0.00 0.00 0.00 54 1028.8
20180423111400 40 110 1.0 3.0 0.00 0.00 0.00 54 1028.8
20180423111257 40 110 1.0 3.0 0.00 0.00 0.00 54 1028.8
20180423111155 40 112 1.0 3.0 0.00 0.00 0.00 54 1028.8
20180423111052 40 121 1.0 3.0 0.00 0.00 0.00 54 1028.8
20180423110948 40 121 1.0 3.0 0.00 0.00 0.00 54 1028.9
20180423110847 40 122 1.0 3.0 0.00 0.00 0.00 54 1028.8
20180423110804 40 122 1.0 4.0 0.00 0.00 0.00 54 1028.8
20180423110700 40 122 1.0 4.0 0.00 0.00 0.00 54 1028.9
20180423110555 40 122 0.0 4.0 0.00 0.00 0.00 54 1028.8
20180423110450 40 122 1.0 4.0 0.00 0.00 0.00 54 1028.7
20180423110350 40 122 1.0 4.0 0.00 0.00 0.00 54 1028.8
20180423110255 40 122 1.0 4.0 0.00 0.00 0.00 55 1028.8
20180423110157 40 122 1.0 4.0 0.00 0.00 0.00 55 1028.7
20180423110051 40 114 1.0 4.0 0.00 0.00 0.00 55 1028.7
20180423110004 40 114 1.0 4.0 0.00 0.00 0.00 54 1028.7
20180423105855 40 122 1.0 3.0 0.00 0.00 0.00 54 1028.7
20180423105801 39 102 1.0 2.0 0.00 0.00 0.00 55 1028.7
20180423105657 39 101 1.0 2.0 0.00 0.00 0.00 55 1028.7
20180423105553 39 102 1.0 2.0 0.00 0.00 0.00 55 1028.6
20180423105449 39 102 1.0 2.0 0.00 0.00 0.00 55 1028.7
20180423105347 39 97 1.0 2.0 0.00 0.00 0.00 55 1028.7
20180423105305 39 97 1.0 2.0 0.00 0.00 0.00 55 1028.7
20180423105157 39 97 1.0 2.0 0.00 0.00 0.00 55 1028.7
20180423105055 39 97 0.0 3.0 0.00 0.00 0.00 55 1028.8
20180423104952 39 97 1.0 3.0 0.00 0.00 0.00 55 1028.8
20180423104847 39 97 1.0 3.0 0.00 0.00 0.00 56 1028.7
20180423104801 39 97 1.0 3.0 0.00 0.00 0.00 55 1028.7
20180423104702 39 97 0.0 3.0 0.00 0.00 0.00 55 1028.7
20180423104555 39 106 1.0 3.0 0.00 0.00 0.00 55 1028.8
20180423104450 39 106 1.0 3.0 0.00 0.00 0.00 55 1028.7
20180423104346 39 100 1.0 3.0 0.00 0.00 0.00 55 1028.8
20180423104251 39 97 1.0 3.0 0.00 0.00 0.00 56 1028.7
20180423104205 39 97 1.0 3.0 0.00 0.00 0.00 55 1028.7
20180423104051 39 97 1.0 3.0 0.00 0.00 0.00 56 1028.6
20180423103947 39 87 1.0 2.0 0.00 0.00 0.00 55 1028.7
20180423103904 39 86 1.0 3.0 0.00 0.00 0.00 55 1028.7
20180423103749 39 86 0.0 3.0 0.00 0.00 0.00 55 1028.6
20180423103706 39 86 0.0 3.0 0.00 0.00 0.00 55 1028.6
20180423103602 39 86 0.0 3.0 0.00 0.00 0.00 55 1028.7
20180423103457 39 86 0.0 3.0 0.00 0.00 0.00 56 1028.6
20180423103353 39 86 0.0 3.0 0.00 0.00 0.00 56 1028.6
20180423103247 39 86 0.0 3.0 0.00 0.00 0.00 56 1028.7
20180423103147 39 86 1.0 3.0 0.00 0.00 0.00 55 1028.7
20180423103103 39 86 1.0 3.0 0.00 0.00 0.00 56 1028.7
20180423103001 39 86 0.0 3.0 0.00 0.00 0.00 56 1028.6
20180423102859 39 64 0.0 2.0 0.00 0.00 0.00 57 1028.7
20180423102750 39 64 0.0 2.0 0.00 0.00 0.00 56 1028.6
20180423102648 39 64 1.0 2.0 0.00 0.00 0.00 56 1028.6
20180423102552 39 64 1.0 2.0 0.00 0.00 0.00 55 1028.6
20180423102458 39 64 0.0 2.0 0.00 0.00 0.00 56 1028.6
20180423102351 39 60 0.0 1.0 0.00 0.00 0.00 56 1028.5
20180423102258 39 60 0.0 1.0 0.00 0.00 0.00 56 1028.5
20180423102154 39 60 0.0 1.0 0.00 0.00 0.00 56 1028.5
20180423102050 39 60 0.0 1.0 0.00 0.00 0.00 56 1028.5
20180423101957 39 60 0.0 1.0 0.00 0.00 0.00 56 1028.5
20180423101850 39 60 0.0 1.0 0.00 0.00 0.00 55 1028.4
20180423101805 39 60 0.0 1.0 0.00 0.00 0.00 56 1028.4
20180423101703 39 60 0.0 1.0 0.00 0.00 0.00 57 1028.4
20180423101546 39 60 0.0 1.0 0.00 0.00 0.00 56 1028.5
20180423101501 39 60 0.0 1.0 0.00 0.00 0.00 56 1028.5
20180423101358 39 60 0.0 1.0 0.00 0.00 0.00 56 1028.4
20180423101255 39 60 0.0 1.0 0.00 0.00 0.00 56 1028.5
20180423101151 39 60 0.0 1.0 0.00 0.00 0.00 56 1028.6
20180423101058 39 60 0.0 1.0 0.00 0.00 0.00 56 1028.6
20180423100955 39 60 0.0 1.0 0.00 0.00 0.00 56 1028.6
20180423100856 39 60 0.0 1.0 0.00 0.00 0.00 56 1028.6
20180423100753 39 60 0.0 2.0 0.00 0.00 0.00 56 1028.4
20180423100648 39 60 0.0 2.0 0.00 0.00 0.00 56 1028.3
20180423100606 39 60 0.0 2.0 0.00 0.00 0.00 56 1028.3
20180423100450 39 60 0.0 2.0 0.00 0.00 0.00 56 1028.5
20180423100406 39 60 0.0 2.0 0.00 0.00 0.00 55 1028.5
20180423100251 39 60 0.0 2.0 0.00 0.00 0.00 56 1028.4
20180423100157 39 60 0.0 2.0 0.00 0.00 0.00 55 1028.4
20180423100058 39 60 0.0 2.0 0.00 0.00 0.00 55 1028.4
20180423095953 39 60 0.0 2.0 0.00 0.00 0.00 55 1028.3
20180423095905 39 60 0.0 2.0 0.00 0.00 0.00 55 1028.3
20180423095803 39 60 0.0 2.0 0.00 0.00 0.00 55 1028.4
20180423095657 39 60 0.0 2.0 0.00 0.00 0.00 55 1028.5
20180423095555 39 60 0.0 2.0 0.00 0.00 0.00 55 1028.4
20180423095451 39 60 0.0 2.0 0.00 0.00 0.00 54 1028.3
20180423095355 39 60 0.0 4.0 0.00 0.00 0.00 55 1028.3
20180423095258 39 60 0.0 4.0 0.00 0.00 0.00 54 1028.4
20180423095205 40 60 0.0 4.0 0.00 0.00 0.00 54 1028.5
20180423095049 40 60 0.0 4.0 0.00 0.00 0.00 55 1028.4
20180423095006 40 60 0.0 4.0 0.00 0.00 0.00 55 1028.4
20180423094851 40 60 0.0 4.0 0.00 0.00 0.00 55 1028.4
20180423094747 40 60 1.0 4.0 0.00 0.00 0.00 54 1028.3
20180423094701 40 60 1.0 4.0 0.00 0.00 0.00 54 1028.3
20180423094545 40 61 1.0 2.0 0.00 0.00 0.00 55 1028.5
20180423094506 40 60 0.0 1.0 0.00 0.00 0.00 54 1028.5
20180423094358 40 61 0.0 1.0 0.00 0.00 0.00 54 1028.4
20180423094254 40 60 0.0 2.0 0.00 0.00 0.00 54 1028.4
20180423094147 40 61 0.0 2.0 0.00 0.00 0.00 54 1028.4
20180423094105 40 60 0.0 2.0 0.00 0.00 0.00 54 1028.4
20180423093957 40 61 0.0 2.0 0.00 0.00 0.00 54 1028.3
20180423093848 40 61 0.0 3.0 0.00 0.00 0.00 54 1028.3
20180423093748 40 60 0.0 3.0 0.00 0.00 0.00 54 1028.4
20180423093704 40 61 0.0 3.0 0.00 0.00 0.00 54 1028.4
20180423093602 40 60 1.0 3.0 0.00 0.00 0.00 54 1028.4
20180423093446 40 61 1.0 3.0 0.00 0.00 0.00 54 1028.3
20180423093400 40 62 0.0 3.0 0.00 0.00 0.00 54 1028.3
20180423093306 40 62 1.0 3.0 0.00 0.00 0.00 54 1028.3
20180423093201 40 62 1.0 3.0 0.00 0.00 0.00 53 1028.4
20180423093057 40 62 1.0 3.0 0.00 0.00 0.00 53 1028.3
20180423092946 40 62 1.0 3.0 0.00 0.00 0.00 54 1028.4
20180423092858 40 60 0.0 3.0 0.00 0.00 0.00 54 1028.4
20180423092749 40 116 0.0 2.0 0.00 0.00 0.00 53 1028.4
20180423092658 40 116 0.0 2.0 0.00 0.00 0.00 53 1028.4
20180423092606 40 116 0.0 2.0 0.00 0.00 0.00 53 1028.5
20180423092458 40 117 0.0 2.0 0.00 0.00 0.00 53 1028.5
20180423092351 40 117 0.0 2.0 0.00 0.00 0.00 54 1028.5
20180423092257 40 117 0.0 2.0 0.00 0.00 0.00 53 1028.5
20180423092153 40 117 1.0 2.0 0.00 0.00 0.00 53 1028.5
20180423092052 40 117 0.0 2.0 0.00 0.00 0.00 53 1028.4
20180423091945 40 133 0.0 2.0 0.00 0.00 0.00 53 1028.4
20180423091902 40 133 0.0 2.0 0.00 0.00 0.00 53 1028.4
20180423091757 40 133 0.0 2.0 0.00 0.00 0.00 53 1028.5
20180423091652 40 132 1.0 2.0 0.00 0.00 0.00 53 1028.4
20180423091548 40 133 0.0 2.0 0.00 0.00 0.00 53 1028.4
20180423091505 40 132 0.0 2.0 0.00 0.00 0.00 54 1028.4
20180423091404 40 134 0.0 2.0 0.00 0.00 0.00 53 1028.4
20180423091259 40 134 0.0 2.0 0.00 0.00 0.00 53 1028.4
20180423091157 40 134 0.0 2.0 0.00 0.00 0.00 53 1028.4
20180423091053 40 134 0.0 2.0 0.00 0.00 0.00 53 1028.5
20180423090947 40 134 0.0 2.0 0.00 0.00 0.00 53 1028.5
20180423090904 40 135 0.0 2.0 0.00 0.00 0.00 53 1028.5
20180423090758 40 134 1.0 2.0 0.00 0.00 0.00 53 1028.6
20180423090700 40 135 0.0 2.0 0.00 0.00 0.00 53 1028.5
20180423090557 40 134 0.0 2.0 0.00 0.00 0.00 53 1028.5
20180423090455 40 133 0.0 2.0 0.00 0.00 0.00 53 1028.4
20180423090350 40 136 0.0 2.0 0.00 0.00 0.00 52 1028.4
20180423090255 40 139 0.0 2.0 0.00 0.00 0.00 52 1028.4
20180423090149 40 98 0.0 2.0 0.00 0.00 0.00 53 1028.5
20180423090045 40 98 0.0 2.0 0.00 0.00 0.00 53 1028.5
20180423090002 40 97 1.0 2.0 0.00 0.00 0.00 53 1028.5
20180423085853 40 92 0.0 2.0 0.00 0.00 0.00 53 1028.5
20180423085748 40 87 1.0 2.0 0.00 0.00 0.00 52 1028.5
20180423085654 40 87 1.0 2.0 0.00 0.00 0.00 53 1028.4
20180423085547 40 85 0.0 2.0 0.00 0.00 0.00 53 1028.3
20180423085502 40 85 0.0 2.0 0.00 0.00 0.00 53 1028.3
20180423085400 40 85 1.0 2.0 0.00 0.00 0.00 52 1028.4
20180423085257 40 85 1.0 2.0 0.00 0.00 0.00 53 1028.4
20180423085158 40 85 0.0 2.0 0.00 0.00 0.00 52 1028.4
20180423085055 40 85 0.0 2.0 0.00 0.00 0.00 52 1028.4
20180423084953 40 85 0.0 2.0 0.00 0.00 0.00 52 1028.4
20180423084849 40 85 0.0 2.0 0.00 0.00 0.00 52 1028.4
20180423084755 40 79 0.0 2.0 0.00 0.00 0.00 53 1028.4
20180423084651 40 79 0.0 3.0 0.00 0.00 0.00 53 1028.4
20180423084558 40 79 0.0 3.0 0.00 0.00 0.00 53 1028.4
20180423084454 40 79 0.0 3.0 0.00 0.00 0.00 53 1028.4
20180423084354 40 79 0.0 3.0 0.00 0.00 0.00 53 1028.3
20180423084300 40 79 0.0 3.0 0.00 0.00 0.00 53 1028.3
20180423084157 40 79 0.0 3.0 0.00 0.00 0.00 53 1028.4
20180423084105 40 79 0.0 3.0 0.00 0.00 0.00 53 1028.4
20180423083954 40 79 1.0 3.0 0.00 0.00 0.00 53 1028.5
20180423083851 40 79 1.0 3.0 0.00 0.00 0.00 53 1028.4
20180423083747 40 87 0.0 2.0 0.00 0.00 0.00 54 1028.4
20180423083658 40 87 0.0 2.0 0.00 0.00 0.00 53 1028.4
20180423083553 40 87 0.0 2.0 0.00 0.00 0.00 53 1028.4
20180423083505 40 87 0.0 2.0 0.00 0.00 0.00 53 1028.4
20180423083402 40 87 0.0 2.0 0.00 0.00 0.00 53 1028.4
20180423083255 40 87 1.0 2.0 0.00 0.00 0.00 53 1028.3
20180423083151 40 87 1.0 2.0 0.00 0.00 0.00 53 1028.4
20180423083102 40 87 1.0 2.0 0.00 0.00 0.00 53 1028.4
20180423082952 40 87 1.0 2.0 0.00 0.00 0.00 53 1028.4
20180423082851 40 87 0.0 3.0 0.00 0.00 0.00 53 1028.5
20180423082759 40 87 0.0 3.0 0.00 0.00 0.00 53 1028.5
20180423082652 40 87 1.0 3.0 0.00 0.00 0.00 53 1028.4
20180423082548 40 87 0.0 3.0 0.00 0.00 0.00 54 1028.4
20180423082459 40 87 0.0 3.0 0.00 0.00 0.00 53 1028.4
20180423082347 40 87 0.0 3.0 0.00 0.00 0.00 53 1028.5
20180423082303 40 87 0.0 3.0 0.00 0.00 0.00 52 1028.5
20180423082156 40 87 1.0 3.0 0.00 0.00 0.00 52 1028.4
20180423082054 40 87 1.0 3.0 0.00 0.00 0.00 53 1028.4
20180423081949 40 75 0.0 2.0 0.00 0.00 0.00 53 1028.4
20180423081846 40 71 0.0 2.0 0.00 0.00 0.00 52 1028.6
20180423081802 40 71 0.0 2.0 0.00 0.00 0.00 52 1028.6
20180423081659 40 114 0.0 2.0 0.00 0.00 0.00 52 1028.5
20180423081553 40 114 0.0 2.0 0.00 0.00 0.00 52 1028.5
20180423081447 40 114 0.0 2.0 0.00 0.00 0.00 52 1028.5
20180423081346 40 114 1.0 2.0 0.00 0.00 0.00 52 1028.4
20180423081303 41 114 1.0 2.0 0.00 0.00 0.00 52 1028.4
20180423081200 41 114 0.0 2.0 0.00 0.00 0.00 52 1028.4
20180423081057 41 114 0.0 3.0 0.00 0.00 0.00 52 1028.4
20180423080949 41 114 1.0 3.0 0.00 0.00 0.00 52 1028.5
20180423080906 41 114 1.0 3.0 0.00 0.00 0.00 52 1028.5
20180423080803 41 114 1.0 3.0 0.00 0.00 0.00 52 1028.5
20180423080659 41 114 1.0 3.0 0.00 0.00 0.00 52 1028.5
20180423080600 41 114 0.0 3.0 0.00 0.00 0.00 52 1028.4
20180423080458 41 114 1.0 3.0 0.00 0.00 0.00 51 1028.5
20180423080356 41 114 1.0 3.0 0.00 0.00 0.00 51 1028.6
20180423080252 41 114 1.0 3.0 0.00 0.00 0.00 51 1028.5
20180423080149 41 114 1.0 4.0 0.00 0.00 0.00 51 1028.6
20180423080047 41 114 1.0 4.0 0.00 0.00 0.00 51 1028.4
20180423075946 41 114 1.0 4.0 0.00 0.00 0.00 51 1028.4
20180423075904 41 114 1.0 4.0 0.00 0.00 0.00 51 1028.4
20180423075801 41 114 1.0 4.0 0.00 0.00 0.00 51 1028.4
20180423075657 41 114 1.0 4.0 0.00 0.00 0.00 51 1028.5
20180423075554 41 114 1.0 4.0 0.00 0.00 0.00 51 1028.4
20180423075452 41 114 1.0 4.0 0.00 0.00 0.00 51 1028.4
20180423075350 41 114 1.0 4.0 0.00 0.00 0.00 51 1028.4
20180423075252 41 109 0.0 3.0 0.00 0.00 0.00 51 1028.4
20180423075147 41 109 0.0 3.0 0.00 0.00 0.00 51 1028.4
20180423075106 41 109 1.0 3.0 0.00 0.00 0.00 51 1028.4
20180423075002 41 109 1.0 3.0 0.00 0.00 0.00 51 1028.4
20180423074900 41 105 1.0 3.0 0.00 0.00 0.00 51 1028.4
20180423074758 41 105 1.0 3.0 0.00 0.00 0.00 50 1028.3
20180423074654 41 101 1.0 3.0 0.00 0.00 0.00 50 1028.3
20180423074555 41 100 1.0 3.0 0.00 0.00 0.00 50 1028.3
20180423074453 41 100 1.0 3.0 0.00 0.00 0.00 50 1028.4
20180423074349 41 110 1.0 3.0 0.00 0.00 0.00 50 1028.3
20180423074246 41 110 1.0 3.0 0.00 0.00 0.00 50 1028.3
20180423074204 41 109 1.0 3.0 0.00 0.00 0.00 50 1028.3
20180423074101 41 108 1.0 3.0 0.00 0.00 0.00 50 1028.4
20180423073957 41 117 1.0 3.0 0.00 0.00 0.00 50 1028.2
20180423073858 41 106 1.0 3.0 0.00 0.00 0.00 50 1028.3
20180423073755 41 102 1.0 4.0 0.00 0.00 0.00 50 1028.4
20180423073652 41 87 1.0 4.0 0.00 0.00 0.00 50 1028.3
20180423073550 42 83 1.0 4.0 0.00 0.00 0.00 50 1028.3
20180423073445 42 81 1.0 4.0 0.00 0.00 0.00 50 1028.4
20180423073403 42 81 1.0 4.0 0.00 0.00 0.00 50 1028.4
20180423073301 42 79 1.0 4.0 0.00 0.00 0.00 50 1028.3
20180423073202 42 79 1.0 4.0 0.00 0.00 0.00 50 1028.3
20180423073058 42 126 1.0 4.0 0.00 0.00 0.00 50 1028.3
20180423072955 42 126 1.0 4.0 0.00 0.00 0.00 49 1028.4
20180423072853 42 127 1.0 4.0 0.00 0.00 0.00 49 1028.3
20180423072751 42 106 1.0 3.0 0.00 0.00 0.00 49 1028.4
20180423072648 42 114 1.0 3.0 0.00 0.00 0.00 49 1028.4
20180423072606 42 83 1.0 3.0 0.00 0.00 0.00 49 1028.4
20180423072446 42 89 1.0 7.0 0.00 0.00 0.00 49 1028.4
20180423072404 42 89 1.0 7.0 0.00 0.00 0.00 49 1028.4
20180423072300 42 87 1.0 7.0 0.00 0.00 0.00 49 1028.4
20180423072157 42 87 1.0 7.0 0.00 0.00 0.00 49 1028.5
20180423072054 42 87 1.0 7.0 0.00 0.00 0.00 49 1028.5
20180423071951 42 87 1.0 7.0 0.00 0.00 0.00 49 1028.3
20180423071848 42 87 2.0 7.0 0.00 0.00 0.00 49 1028.4
20180423071748 42 87 2.0 7.0 0.00 0.00 0.00 50 1028.4
20180423071706 42 87 1.0 7.0 0.00 0.00 0.00 50 1028.4
20180423071604 42 100 1.0 3.0 0.00 0.00 0.00 49 1028.5
20180423071501 42 100 1.0 3.0 0.00 0.00 0.00 49 1028.4
20180423071357 41 90 1.0 3.0 0.00 0.00 0.00 49 1028.4
20180423071254 41 92 1.0 3.0 0.00 0.00 0.00 49 1028.4
20180423071152 41 91 1.0 3.0 0.00 0.00 0.00 50 1028.5
20180423071053 41 89 1.0 3.0 0.00 0.00 0.00 50 1028.5
20180423070950 41 89 1.0 3.0 0.00 0.00 0.00 50 1028.4
20180423070846 41 89 1.0 3.0 0.00 0.00 0.00 50 1028.6
20180423070803 41 90 2.0 3.0 0.00 0.00 0.00 50 1028.6
20180423070700 41 93 1.0 2.0 0.00 0.00 0.00 50 1028.4
20180423070557 41 96 1.0 2.0 0.00 0.00 0.00 50 1028.4
20180423070454 41 97 1.0 2.0 0.00 0.00 0.00 50 1028.5
20180423070354 41 97 1.0 2.0 0.00 0.00 0.00 50 1028.6
20180423070251 41 98 1.0 2.0 0.00 0.00 0.00 50 1028.6
20180423070146 41 98 1.0 2.0 0.00 0.00 0.00 50 1028.6
20180423070104 41 98 0.0 2.0 0.00 0.00 0.00 50 1028.6
20180423070000 41 98 0.0 2.0 0.00 0.00 0.00 51 1028.6
20180423065858 41 98 1.0 2.0 0.00 0.00 0.00 50 1028.6
20180423065754 41 98 1.0 2.0 0.00 0.00 0.00 51 1028.7
20180423065655 41 98 1.0 2.0 0.00 0.00 0.00 50 1028.7
20180423065552 41 98 1.0 2.0 0.00 0.00 0.00 50 1028.6
20180423065450 41 106 1.0 2.0 0.00 0.00 0.00 50 1028.7
20180423065347 42 106 1.0 2.0 0.00 0.00 0.00 50 1028.7
20180423065305 42 106 0.0 2.0 0.00 0.00 0.00 50 1028.7
20180423065202 42 106 0.0 2.0 0.00 0.00 0.00 50 1028.7
20180423065100 42 106 1.0 2.0 0.00 0.00 0.00 50 1028.7
20180423065001 42 106 1.0 2.0 0.00 0.00 0.00 51 1028.8
20180423064901 42 106 0.0 2.0 0.00 0.00 0.00 50 1028.8
20180423064758 42 106 0.0 2.0 0.00 0.00 0.00 50 1028.7
20180423064655 42 106 0.0 2.0 0.00 0.00 0.00 50 1028.8
20180423064554 42 106 0.0 3.0 0.00 0.00 0.00 50 1028.7
20180423064451 42 106 0.0 3.0 0.00 0.00 0.00 50 1028.7
20180423064353 42 106 0.0 3.0 0.00 0.00 0.00 50 1028.7
20180423064250 42 106 0.0 3.0 0.00 0.00 0.00 50 1028.6
20180423064146 42 106 0.0 3.0 0.00 0.00 0.00 49 1028.8
20180423064105 42 106 0.0 4.0 0.00 0.00 0.00 49 1028.8
20180423064002 42 106 0.0 4.0 0.00 0.00 0.00 49 1028.7
20180423063858 42 106 0.0 4.0 0.00 0.00 0.00 49 1028.7
20180423063757 42 106 1.0 4.0 0.00 0.00 0.00 50 1028.7
20180423063657 42 106 1.0 4.0 0.00 0.00 0.00 49 1028.7
20180423063554 42 106 1.0 4.0 0.00 0.00 0.00 49 1028.7
20180423063452 42 105 1.0 4.0 0.00 0.00 0.00 49 1028.7
20180423063348 42 105 2.0 4.0 0.00 0.00 0.00 49 1028.8
20180423063305 42 106 1.0 4.0 0.00 0.00 0.00 50 1028.8
20180423063203 42 91 1.0 4.0 0.00 0.00 0.00 50 1028.7
20180423063059 42 110 1.0 4.0 0.00 0.00 0.00 49 1028.7
20180423063000 42 110 1.0 4.0 0.00 0.00 0.00 50 1028.7
20180423062858 42 108 0.0 3.0 0.00 0.00 0.00 50 1028.8
20180423062755 42 107 1.0 3.0 0.00 0.00 0.00 50 1028.8
20180423062652 42 106 1.0 3.0 0.00 0.00 0.00 49 1028.8
20180423062548 42 98 1.0 3.0 0.00 0.00 0.00 50 1028.8
20180423062445 42 95 1.0 3.0 0.00 0.00 0.00 50 1028.7
20180423062404 42 95 1.0 3.0 0.00 0.00 0.00 50 1028.7
20180423062305 42 95 1.0 4.0 0.00 0.00 0.00 49 1028.7
20180423062203 42 94 1.0 4.0 0.00 0.00 0.00 50 1028.8
20180423062100 42 94 1.0 4.0 0.00 0.00 0.00 49 1028.8
20180423061958 42 94 1.0 4.0 0.00 0.00 0.00 50 1028.7
20180423061855 42 93 1.0 4.0 0.00 0.00 0.00 50 1028.7
20180423061751 42 93 1.0 4.0 0.00 0.00 0.00 50 1028.7
20180423061648 42 94 1.0 4.0 0.00 0.00 0.00 50 1028.7
20180423061550 42 93 1.0 4.0 0.00 0.00 0.00 50 1028.8
20180423061446 42 119 2.0 4.0 0.00 0.00 0.00 51 1028.8
20180423061403 41 98 1.0 4.0 0.00 0.00 0.00 50 1028.8
20180423061302 42 117 1.0 3.0 0.00 0.00 0.00 51 1028.8
20180423061200 41 117 1.0 3.0 0.00 0.00 0.00 52 1028.7
20180423061100 41 117 1.0 2.0 0.00 0.00 0.00 51 1028.6
20180423061001 41 90 1.0 2.0 0.00 0.00 0.00 51 1028.7
20180423060903 42 86 1.0 2.0 0.00 0.00 0.00 51 1028.7
20180423060800 42 86 1.0 2.0 0.00 0.00 0.00 51 1028.6
20180423060658 41 85 0.0 2.0 0.00 0.00 0.00 51 1028.6
20180423060555 42 86 0.0 2.0 0.00 0.00 0.00 51 1028.7
20180423060452 41 86 0.0 2.0 0.00 0.00 0.00 51 1028.7
20180423060348 42 73 0.0 2.0 0.00 0.00 0.00 51 1028.8
20180423060250 42 73 1.0 2.0 0.00 0.00 0.00 51 1028.7
20180423060146 42 73 0.0 2.0 0.00 0.00 0.00 51 1028.8
20180423060104 42 73 0.0 2.0 0.00 0.00 0.00 51 1028.8
20180423060001 42 73 1.0 2.0 0.00 0.00 0.00 51 1028.7
20180423055858 42 69 0.0 2.0 0.00 0.00 0.00 51 1028.7
20180423055756 42 68 0.0 2.0 0.00 0.00 0.00 51 1028.8
20180423055654 42 69 0.0 2.0 0.00 0.00 0.00 51 1028.7
20180423055555 42 69 0.0 2.0 0.00 0.00 0.00 51 1028.7
20180423055456 42 69 0.0 2.0 0.00 0.00 0.00 51 1028.7
20180423055356 42 69 0.0 2.0 0.00 0.00 0.00 51 1028.7
20180423055255 42 68 0.0 2.0 0.00 0.00 0.00 50 1028.7
20180423055157 42 68 1.0 2.0 0.00 0.00 0.00 50 1028.7
20180423055054 42 68 1.0 2.0 0.00 0.00 0.00 51 1028.8
20180423054953 42 68 1.0 2.0 0.00 0.00 0.00 51 1028.7
20180423054857 42 68 0.0 4.0 0.00 0.00 0.00 50 1028.7
20180423054755 42 68 0.0 4.0 0.00 0.00 0.00 51 1028.8
20180423054654 42 68 0.0 4.0 0.00 0.00 0.00 50 1028.8
20180423054550 42 69 1.0 4.0 0.00 0.00 0.00 50 1028.7
20180423054447 42 68 1.0 4.0 0.00 0.00 0.00 50 1028.7
20180423054405 42 68 0.0 4.0 0.00 0.00 0.00 50 1028.7
20180423054245 42 68 0.0 4.0 0.00 0.00 0.00 50 1028.7
20180423054206 42 69 1.0 4.0 0.00 0.00 0.00 50 1028.7
20180423054102 42 68 1.0 4.0 0.00 0.00 0.00 51 1028.6
20180423054000 42 96 0.0 2.0 0.00 0.00 0.00 50 1028.7
20180423053857 42 98 0.0 1.0 0.00 0.00 0.00 51 1028.7
20180423053757 42 98 0.0 1.0 0.00 0.00 0.00 50 1028.7
20180423053653 42 98 0.0 1.0 0.00 0.00 0.00 50 1028.6
20180423053554 42 98 0.0 1.0 0.00 0.00 0.00 50 1028.7
20180423053450 42 99 0.0 1.0 0.00 0.00 0.00 50 1028.7
20180423053347 42 98 0.0 1.0 0.00 0.00 0.00 50 1028.6
20180423053305 42 98 0.0 1.0 0.00 0.00 0.00 50 1028.6
20180423053203 42 98 0.0 1.0 0.00 0.00 0.00 50 1028.7
20180423053101 42 98 0.0 1.0 0.00 0.00 0.00 49 1028.6
20180423052957 42 98 0.0 1.0 0.00 0.00 0.00 49 1028.7
20180423052857 42 98 0.0 1.0 0.00 0.00 0.00 49 1028.7
20180423052755 42 99 0.0 1.0 0.00 0.00 0.00 49 1028.6
20180423052651 42 99 0.0 1.0 0.00 0.00 0.00 49 1028.7
20180423052550 42 98 0.0 1.0 0.00 0.00 0.00 49 1028.7
20180423052445 42 98 0.0 2.0 0.00 0.00 0.00 49 1028.8
20180423052403 42 98 0.0 2.0 0.00 0.00 0.00 48 1028.8
20180423052301 42 99 0.0 2.0 0.00 0.00 0.00 49 1028.8
20180423052203 42 98 0.0 2.0 0.00 0.00 0.00 49 1028.7
20180423052100 42 98 0.0 2.0 0.00 0.00 0.00 48 1028.7
20180423051957 42 98 0.0 2.0 0.00 0.00 0.00 48 1028.8
20180423051855 42 98 0.0 2.0 0.00 0.00 0.00 48 1028.8
20180423051750 42 98 1.0 2.0 0.00 0.00 0.00 48 1028.8
20180423051646 43 99 0.0 2.0 0.00 0.00 0.00 48 1028.8
20180423051603 43 99 0.0 2.0 0.00 0.00 0.00 48 1028.8
20180423051505 43 99 0.0 2.0 0.00 0.00 0.00 47 1028.8
20180423051402 43 98 0.0 2.0 0.00 0.00 0.00 47 1028.7
20180423051259 43 98 0.0 1.0 0.00 0.00 0.00 47 1028.8
20180423051157 43 98 0.0 1.0 0.00 0.00 0.00 47 1028.8
20180423051054 43 98 0.0 1.0 0.00 0.00 0.00 47 1028.8
20180423050951 43 99 0.0 1.0 0.00 0.00 0.00 47 1028.8
20180423050848 43 98 0.0 1.0 0.00 0.00 0.00 47 1028.9
20180423050749 43 98 0.0 1.0 0.00 0.00 0.00 47 1028.8
20180423050645 43 99 0.0 2.0 0.00 0.00 0.00 47 1028.9
20180423050604 43 99 0.0 2.0 0.00 0.00 0.00 47 1028.9
20180423050500 43 98 0.0 2.0 0.00 0.00 0.00 47 1028.8
20180423050358 43 99 0.0 2.0 0.00 0.00 0.00 47 1028.9
20180423050255 43 98 0.0 2.0 0.00 0.00 0.00 47 1028.8
20180423050151 44 98 0.0 2.0 0.00 0.00 0.00 46 1028.8
20180423050053 44 98 0.0 2.0 0.00 0.00 0.00 46 1028.9
20180423045950 44 99 0.0 2.0 0.00 0.00 0.00 46 1028.8
20180423045846 44 99 1.0 2.0 0.00 0.00 0.00 46 1028.8
20180423045803 44 99 0.0 2.0 0.00 0.00 0.00 46 1028.8
20180423045701 44 98 0.0 2.0 0.00 0.00 0.00 46 1028.8
20180423045558 44 98 1.0 2.0 0.00 0.00 0.00 46 1028.8
20180423045454 44 98 1.0 2.0 0.00 0.00 0.00 45 1028.8
20180423045356 44 98 1.0 2.0 0.00 0.00 0.00 45 1028.7
20180423045254 44 100 1.0 2.0 0.00 0.00 0.00 45 1028.7
20180423045151 44 102 0.0 2.0 0.00 0.00 0.00 45 1028.7
20180423045046 44 102 0.0 2.0 0.00 0.00 0.00 46 1028.7
20180423045003 44 102 1.0 2.0 0.00 0.00 0.00 45 1028.7
20180423044901 44 102 1.0 2.0 0.00 0.00 0.00 45 1028.7
20180423044758 44 102 1.0 2.0 0.00 0.00 0.00 45 1028.7
20180423044659 44 115 1.0 2.0 0.00 0.00 0.00 45 1028.6
20180423044557 44 115 0.0 2.0 0.00 0.00 0.00 46 1028.6
20180423044455 44 117 0.0 2.0 0.00 0.00 0.00 45 1028.6
20180423044352 44 117 1.0 2.0 0.00 0.00 0.00 46 1028.6
20180423044249 44 117 0.0 1.0 0.00 0.00 0.00 45 1028.6
20180423044146 44 117 0.0 2.0 0.00 0.00 0.00 45 1028.7
20180423044047 44 117 0.0 2.0 0.00 0.00 0.00 46 1028.6
20180423044004 44 117 0.0 2.0 0.00 0.00 0.00 46 1028.6
20180423043901 44 117 0.0 2.0 0.00 0.00 0.00 45 1028.6
20180423043758 44 117 0.0 2.0 0.00 0.00 0.00 45 1028.6
20180423043654 44 117 0.0 3.0 0.00 0.00 0.00 45 1028.6
20180423043552 44 117 0.0 3.0 0.00 0.00 0.00 45 1028.6
20180423043447 44 117 0.0 3.0 0.00 0.00 0.00 45 1028.5
20180423043348 44 117 0.0 3.0 0.00 0.00 0.00 45 1028.5
20180423043245 44 117 1.0 3.0 0.00 0.00 0.00 45 1028.6
20180423043204 44 117 1.0 3.0 0.00 0.00 0.00 45 1028.6
20180423043100 44 117 0.0 3.0 0.00 0.00 0.00 45 1028.6
20180423042957 44 117 1.0 3.0 0.00 0.00 0.00 45 1028.6
20180423042855 44 117 1.0 3.0 0.00 0.00 0.00 45 1028.6
20180423042752 44 117 0.0 2.0 0.00 0.00 0.00 44 1028.7
20180423042654 44 117 0.0 2.0 0.00 0.00 0.00 45 1028.7
20180423042551 44 117 0.0 2.0 0.00 0.00 0.00 44 1028.7
20180423042447 44 117 1.0 2.0 0.00 0.00 0.00 45 1028.7
20180423042405 44 117 0.0 2.0 0.00 0.00 0.00 44 1028.7
20180423042303 44 117 0.0 1.0 0.00 0.00 0.00 44 1028.7
20180423042201 44 117 0.0 1.0 0.00 0.00 0.00 44 1028.7
20180423042058 44 117 0.0 1.0 0.00 0.00 0.00 44 1028.7
20180423041958 44 117 0.0 1.0 0.00 0.00 0.00 45 1028.8
20180423041855 44 117 0.0 1.0 0.00 0.00 0.00 45 1028.5
20180423041752 44 117 0.0 1.0 0.00 0.00 0.00 44 1028.6
20180423041647 44 117 0.0 1.0 0.00 0.00 0.00 44 1028.6
20180423041605 44 117 0.0 1.0 0.00 0.00 0.00 45 1028.6
20180423041502 44 117 0.0 1.0 0.00 0.00 0.00 45 1028.7
20180423041358 44 117 0.0 1.0 0.00 0.00 0.00 45 1028.7
20180423041300 44 117 0.0 1.0 0.00 0.00 0.00 44 1028.6
20180423041157 44 117 0.0 1.0 0.00 0.00 0.00 44 1028.6
20180423041054 44 117 0.0 1.0 0.00 0.00 0.00 44 1028.7
20180423040952 44 117 0.0 1.0 0.00 0.00 0.00 44 1028.6
20180423040847 44 117 0.0 1.0 0.00 0.00 0.00 44 1028.7
20180423040805 44 117 0.0 1.0 0.00 0.00 0.00 44 1028.7
20180423040703 44 117 0.0 1.0 0.00 0.00 0.00 44 1028.6
20180423040603 44 117 0.0 1.0 0.00 0.00 0.00 44 1028.7
20180423040501 44 117 0.0 1.0 0.00 0.00 0.00 44 1028.7
20180423040409 44 117 0.0 1.0 0.00 0.00 0.00 44 1028.8
20180423040252 44 117 0.0 1.0 0.00 0.00 0.00 44 1028.7
20180423040147 44 117 0.0 1.0 0.00 0.00 0.00 44 1028.7
20180423040105 44 117 0.0 1.0 0.00 0.00 0.00 44 1028.7
20180423035955 44 117 0.0 1.0 0.00 0.00 0.00 44 1028.7
20180423035858 44 117 0.0 1.0 0.00 0.00 0.00 44 1028.7
20180423035754 44 117 0.0 1.0 0.00 0.00 0.00 44 1028.7
20180423035652 44 117 0.0 1.0 0.00 0.00 0.00 44 1028.7
20180423035551 44 117 0.0 1.0 0.00 0.00 0.00 44 1028.7
20180423035447 44 117 0.0 1.0 0.00 0.00 0.00 44 1028.7
20180423035405 44 117 0.0 1.0 0.00 0.00 0.00 44 1028.7
20180423035302 44 117 0.0 1.0 0.00 0.00 0.00 44 1028.7
20180423035204 44 117 0.0 1.0 0.00 0.00 0.00 43 1028.7
20180423035101 44 117 0.0 1.0 0.00 0.00 0.00 44 1028.7
20180423034958 44 117 0.0 1.0 0.00 0.00 0.00 44 1028.7
20180423034855 44 117 0.0 1.0 0.00 0.00 0.00 44 1028.7
20180423034751 44 117 0.0 1.0 0.00 0.00 0.00 44 1028.7
20180423034648 44 117 0.0 1.0 0.00 0.00 0.00 45 1028.7
20180423034546 44 117 0.0 1.0 0.00 0.00 0.00 44 1028.7
20180423034449 44 117 0.0 1.0 0.00 0.00 0.00 45 1028.7
20180423034345 44 117 0.0 1.0 0.00 0.00 0.00 44 1028.7
20180423034303 44 117 0.0 1.0 0.00 0.00 0.00 44 1028.7
20180423034200 44 117 0.0 1.0 0.00 0.00 0.00 44 1028.8
20180423034057 44 117 0.0 1.0 0.00 0.00 0.00 45 1028.7
20180423033955 44 117 0.0 1.0 0.00 0.00 0.00 45 1028.7
20180423033852 44 117 0.0 0.0 0.00 0.00 0.00 44 1028.7
20180423033754 44 117 0.0 0.0 0.00 0.00 0.00 45 1028.8
20180423033651 44 117 0.0 0.0 0.00 0.00 0.00 44 1028.9
20180423033549 44 117 0.0 0.0 0.00 0.00 0.00 45 1028.7
20180423033445 44 117 0.0 0.0 0.00 0.00 0.00 45 1028.8
20180423033404 44 117 0.0 0.0 0.00 0.00 0.00 45 1028.8
20180423033302 44 117 0.0 0.0 0.00 0.00 0.00 44 1028.8
20180423033159 44 117 0.0 0.0 0.00 0.00 0.00 44 1028.9
20180423033100 44 117 0.0 0.0 0.00 0.00 0.00 45 1028.9
20180423032956 44 117 0.0 0.0 0.00 0.00 0.00 44 1028.9
20180423032853 44 117 0.0 0.0 0.00 0.00 0.00 44 1028.9
20180423032749 44 117 0.0 0.0 0.00 0.00 0.00 45 1028.9
20180423032647 44 117 0.0 0.0 0.00 0.00 0.00 45 1029.0
20180423032604 44 117 0.0 0.0 0.00 0.00 0.00 45 1029.0
20180423032445 44 117 0.0 0.0 0.00 0.00 0.00 44 1028.9
20180423032402 44 117 0.0 0.0 0.00 0.00 0.00 45 1028.9
20180423032300 44 117 0.0 0.0 0.00 0.00 0.00 44 1029.0
20180423032157 44 117 0.0 0.0 0.00 0.00 0.00 44 1028.9
20180423032054 44 117 0.0 0.0 0.00 0.00 0.00 44 1028.9
20180423031953 44 117 0.0 0.0 0.00 0.00 0.00 44 1029.0
20180423031850 44 117 0.0 0.0 0.00 0.00 0.00 44 1029.0
20180423031752 44 117 0.0 0.0 0.00 0.00 0.00 44 1029.0
20180423031649 44 117 0.0 0.0 0.00 0.00 0.00 44 1029.0
20180423031545 44 117 0.0 0.0 0.00 0.00 0.00 44 1029.1
20180423031505 44 117 0.0 0.0 0.00 0.00 0.00 44 1029.1
20180423031401 44 117 0.0 1.0 0.00 0.00 0.00 44 1029.1
20180423031258 44 117 0.0 2.0 0.00 0.00 0.00 44 1029.0
20180423031154 44 117 0.0 2.0 0.00 0.00 0.00 44 1029.1
20180423031055 44 117 0.0 2.0 0.00 0.00 0.00 44 1029.1
20180423030953 45 117 0.0 2.0 0.00 0.00 0.00 44 1029.1
20180423030850 45 117 0.0 2.0 0.00 0.00 0.00 44 1029.1
20180423030746 45 117 0.0 2.0 0.00 0.00 0.00 44 1029.1
20180423030705 45 117 0.0 2.0 0.00 0.00 0.00 44 1029.1
20180423030603 45 117 0.0 2.0 0.00 0.00 0.00 44 1029.0
20180423030501 45 117 0.0 2.0 0.00 0.00 0.00 43 1029.1
20180423030401 45 117 0.0 1.0 0.00 0.00 0.00 43 1029.1
20180423030259 45 117 0.0 0.0 0.00 0.00 0.00 43 1029.1
20180423030155 45 117 0.0 0.0 0.00 0.00 0.00 43 1029.2
20180423030053 45 117 0.0 0.0 0.00 0.00 0.00 43 1029.3
20180423025951 45 117 0.0 0.0 0.00 0.00 0.00 43 1029.2
20180423025847 45 117 0.0 0.0 0.00 0.00 0.00 42 1029.2
20180423025805 45 117 0.0 0.0 0.00 0.00 0.00 42 1029.2
20180423025645 45 117 0.0 0.0 0.00 0.00 0.00 42 1029.2
20180423025602 45 117 0.0 0.0 0.00 0.00 0.00 42 1029.2
20180423025459 45 117 0.0 0.0 0.00 0.00 0.00 42 1029.2
20180423025355 45 117 0.0 0.0 0.00 0.00 0.00 42 1029.3
20180423025253 45 117 0.0 0.0 0.00 0.00 0.00 42 1029.3
20180423025148 45 117 0.0 0.0 0.00 0.00 0.00 42 1029.3
20180423025106 45 117 0.0 0.0 0.00 0.00 0.00 42 1029.3
20180423024945 45 117 0.0 0.0 0.00 0.00 0.00 42 1029.3
20180423024904 45 117 0.0 0.0 0.00 0.00 0.00 42 1029.3
20180423024801 45 117 0.0 0.0 0.00 0.00 0.00 41 1029.3
20180423024657 45 117 0.0 0.0 0.00 0.00 0.00 41 1029.4
20180423024554 45 117 0.0 0.0 0.00 0.00 0.00 41 1029.3
20180423024451 46 117 0.0 0.0 0.00 0.00 0.00 41 1029.3
20180423024349 46 117 0.0 0.0 0.00 0.00 0.00 41 1029.3
20180423024250 46 117 0.0 0.0 0.00 0.00 0.00 41 1029.3
20180423024146 46 117 0.0 0.0 0.00 0.00 0.00 41 1029.3
20180423024104 46 117 0.0 0.0 0.00 0.00 0.00 41 1029.3
20180423024001 46 117 0.0 0.0 0.00 0.00 0.00 41 1029.3
20180423023858 46 117 0.0 1.0 0.00 0.00 0.00 40 1029.2
20180423023755 46 117 0.0 1.0 0.00 0.00 0.00 40 1029.3
20180423023652 46 117 0.0 1.0 0.00 0.00 0.00 40 1029.3
20180423023553 46 117 0.0 1.0 0.00 0.00 0.00 40 1029.4
20180423023450 46 117 0.0 1.0 0.00 0.00 0.00 40 1029.3
20180423023347 46 117 0.0 1.0 0.00 0.00 0.00 40 1029.4
20180423023305 46 117 0.0 1.0 0.00 0.00 0.00 40 1029.4
20180423023202 46 117 0.0 1.0 0.00 0.00 0.00 40 1029.3
20180423023100 46 117 0.0 1.0 0.00 0.00 0.00 40 1029.4
20180423022956 46 117 0.0 0.0 0.00 0.00 0.00 40 1029.3
20180423022859 46 117 0.0 0.0 0.00 0.00 0.00 41 1029.3
20180423022756 47 117 0.0 0.0 0.00 0.00 0.00 41 1029.3
20180423022654 47 117 0.0 0.0 0.00 0.00 0.00 41 1029.3
20180423022550 47 117 0.0 1.0 0.00 0.00 0.00 41 1029.4
20180423022447 47 117 0.0 1.0 0.00 0.00 0.00 41 1029.3
20180423022404 47 117 0.0 1.0 0.00 0.00 0.00 41 1029.3
20180423022301 47 117 0.0 1.0 0.00 0.00 0.00 41 1029.2
20180423022203 47 117 0.0 1.0 0.00 0.00 0.00 40 1029.3
20180423022102 47 117 0.0 1.0 0.00 0.00 0.00 40 1029.2
20180423022000 47 117 0.0 1.0 0.00 0.00 0.00 40 1029.2
20180423021857 47 117 0.0 1.0 0.00 0.00 0.00 40 1029.2
20180423021754 47 117 0.0 1.0 0.00 0.00 0.00 40 1029.3
20180423021650 47 117 0.0 1.0 0.00 0.00 0.00 40 1029.3
20180423021552 47 117 0.0 1.0 0.00 0.00 0.00 40 1029.3
20180423021447 47 117 0.0 1.0 0.00 0.00 0.00 40 1029.3
20180423021405 47 117 0.0 1.0 0.00 0.00 0.00 40 1029.3
20180423021301 47 117 0.0 1.0 0.00 0.00 0.00 40 1029.3
20180423021157 47 117 1.0 1.0 0.00 0.00 0.00 40 1029.3
20180423021055 47 117 0.0 1.0 0.00 0.00 0.00 40 1029.3
20180423020952 47 117 0.0 1.0 0.00 0.00 0.00 40 1029.3
20180423020853 47 117 0.0 1.0 0.00 0.00 0.00 39 1029.3
20180423020750 47 117 0.0 1.0 0.00 0.00 0.00 40 1029.3
20180423020646 47 117 0.0 1.0 0.00 0.00 0.00 39 1029.4
20180423020605 47 117 0.0 1.0 0.00 0.00 0.00 39 1029.4
20180423020501 47 117 0.0 1.0 0.00 0.00 0.00 40 1029.3
20180423020359 47 117 0.0 1.0 0.00 0.00 0.00 40 1029.3
20180423020256 47 117 0.0 1.0 0.00 0.00 0.00 40 1029.3
20180423020157 47 117 0.0 1.0 0.00 0.00 0.00 39 1029.3
20180423020054 47 117 0.0 1.0 0.00 0.00 0.00 40 1029.3
20180423015951 48 117 0.0 1.0 0.00 0.00 0.00 40 1029.2
20180423015847 48 117 0.0 1.0 0.00 0.00 0.00 40 1029.2
20180423015806 48 117 0.0 1.0 0.00 0.00 0.00 39 1029.2
20180423015702 48 117 0.0 1.0 0.00 0.00 0.00 39 1029.3
20180423015600 48 117 0.0 2.0 0.00 0.00 0.00 39 1029.3
20180423015501 48 117 0.0 2.0 0.00 0.00 0.00 38 1029.2
20180423015357 48 117 0.0 2.0 0.00 0.00 0.00 39 1029.2
20180423015253 48 117 0.0 2.0 0.00 0.00 0.00 38 1029.2
20180423015149 48 117 0.0 2.0 0.00 0.00 0.00 39 1029.3
20180423015045 48 117 0.0 2.0 0.00 0.00 0.00 38 1029.2
20180423015004 48 117 0.0 2.0 0.00 0.00 0.00 38 1029.2
20180423014902 48 117 0.0 2.0 0.00 0.00 0.00 38 1029.3
20180423014803 48 117 0.0 2.0 0.00 0.00 0.00 38 1029.3
20180423014701 48 117 0.0 1.0 0.00 0.00 0.00 38 1029.2
20180423014557 48 117 0.0 0.0 0.00 0.00 0.00 38 1029.3
20180423014454 48 117 0.0 0.0 0.00 0.00 0.00 38 1029.1
20180423014352 48 117 0.0 0.0 0.00 0.00 0.00 38 1029.3
20180423014248 48 117 0.0 0.0 0.00 0.00 0.00 37 1029.2
20180423014146 49 117 0.0 0.0 0.00 0.00 0.00 37 1029.2
20180423014046 49 117 0.0 0.0 0.00 0.00 0.00 37 1029.2
20180423014003 49 117 0.0 0.0 0.00 0.00 0.00 37 1029.2
20180423013901 49 117 0.0 0.0 0.00 0.00 0.00 38 1029.2
20180423013757 49 117 0.0 0.0 0.00 0.00 0.00 37 1029.1
20180423013654 49 117 0.0 0.0 0.00 0.00 0.00 37 1029.2
20180423013551 49 117 0.0 0.0 0.00 0.00 0.00 38 1029.3
20180423013449 49 117 0.0 0.0 0.00 0.00 0.00 37 1029.2
20180423013349 49 117 0.0 0.0 0.00 0.00 0.00 37 1029.3
20180423013245 49 117 0.0 0.0 0.00 0.00 0.00 37 1029.3
20180423013202 49 117 0.0 0.0 0.00 0.00 0.00 37 1029.3
20180423013100 49 117 0.0 0.0 0.00 0.00 0.00 37 1029.3
20180423012957 49 117 0.0 0.0 0.00 0.00 0.00 38 1029.3
20180423012854 49 117 0.0 0.0 0.00 0.00 0.00 37 1029.2
20180423012751 49 117 0.0 0.0 0.00 0.00 0.00 37 1029.3
20180423012652 49 117 0.0 0.0 0.00 0.00 0.00 37 1029.3
20180423012549 49 117 0.0 0.0 0.00 0.00 0.00 36 1029.2
20180423012445 49 117 0.0 0.0 0.00 0.00 0.00 37 1029.3
20180423012403 49 117 0.0 1.0 0.00 0.00 0.00 37 1029.3
20180423012300 50 117 0.0 1.0 0.00 0.00 0.00 37 1029.2
20180423012157 50 117 0.0 1.0 0.00 0.00 0.00 36 1029.2
20180423012055 50 117 0.0 1.0 0.00 0.00 0.00 36 1029.2
20180423011956 50 117 0.0 2.0 0.00 0.00 0.00 36 1029.2
20180423011854 50 117 0.0 2.0 0.00 0.00 0.00 36 1029.2
20180423011751 50 117 0.0 2.0 0.00 0.00 0.00 36 1029.2
20180423011649 50 117 0.0 2.0 0.00 0.00 0.00 36 1029.2
20180423011544 50 117 0.0 2.0 0.00 0.00 0.00 36 1029.2
20180423011504 50 117 0.0 3.0 0.00 0.00 0.00 36 1029.2
20180423011400 50 117 0.0 3.0 0.00 0.00 0.00 36 1029.2
20180423011302 50 117 1.0 3.0 0.00 0.00 0.00 36 1029.2
20180423011158 50 117 1.0 3.0 0.00 0.00 0.00 36 1029.2
20180423011055 50 117 1.0 3.0 0.00 0.00 0.00 35 1029.2
20180423010952 50 117 0.0 3.0 0.00 0.00 0.00 35 1029.2
20180423010850 50 117 0.0 3.0 0.00 0.00 0.00 36 1029.2
20180423010746 50 117 1.0 3.0 0.00 0.00 0.00 35 1029.3
20180423010648 50 117 1.0 3.0 0.00 0.00 0.00 35 1029.1
20180423010547 50 117 1.0 3.0 0.00 0.00 0.00 35 1029.2
20180423010444 51 120 1.0 4.0 0.00 0.00 0.00 35 1029.2
20180423010402 51 120 1.0 4.0 0.00 0.00 0.00 35 1029.2
20180423010300 51 120 1.0 4.0 0.00 0.00 0.00 35 1029.2
20180423010157 51 120 1.0 4.0 0.00 0.00 0.00 35 1029.2
20180423010054 51 124 1.0 4.0 0.00 0.00 0.00 35 1029.2
20180423005952 51 110 1.0 4.0 0.00 0.00 0.00 35 1029.1
20180423005849 51 109 1.0 4.0 0.00 0.00 0.00 35 1029.1
20180423005745 51 108 1.0 4.0 0.00 0.00 0.00 35 1029.1
20180423005703 51 109 1.0 4.0 0.00 0.00 0.00 35 1029.1
20180423005600 51 115 1.0 3.0 0.00 0.00 0.00 35 1029.1
20180423005457 51 115 1.0 3.0 0.00 0.00 0.00 35 1029.1
20180423005354 51 115 1.0 3.0 0.00 0.00 0.00 34 1029.2
20180423005255 51 115 1.0 3.0 0.00 0.00 0.00 35 1029.1
20180423005153 51 115 1.0 3.0 0.00 0.00 0.00 35 1029.1
20180423005051 51 115 1.0 3.0 0.00 0.00 0.00 34 1029.1
20180423004948 51 115 1.0 2.0 0.00 0.00 0.00 34 1029.1
20180423004845 52 115 0.0 2.0 0.00 0.00 0.00 34 1029.2
20180423004741 52 115 0.0 2.0 0.00 0.00 0.00 35 1029.1
20180423004659 52 115 0.0 2.0 0.00 0.00 0.00 33 1029.1
20180423004559 52 115 0.0 2.0 0.00 0.00 0.00 33 1029.0
20180423004456 52 115 1.0 2.0 0.00 0.00 0.00 33 1029.1
20180423004352 52 115 1.0 2.0 0.00 0.00 0.00 33 1029.0
20180423004250 52 115 0.0 2.0 0.00 0.00 0.00 33 1029.1
20180423004146 52 115 0.0 2.0 0.00 0.00 0.00 34 1029.1
20180423004104 52 115 0.0 2.0 0.00 0.00 0.00 33 1029.1
20180423004002 52 115 0.0 2.0 0.00 0.00 0.00 34 1029.1
20180423003903 52 115 0.0 3.0 0.00 0.00 0.00 33 1029.1
20180423003801 52 115 0.0 3.0 0.00 0.00 0.00 34 1029.0
20180423003701 52 115 1.0 3.0 0.00 0.00 0.00 33 1028.9
20180423003558 52 115 1.0 4.0 0.00 0.00 0.00 33 1029.0
20180423003455 53 108 1.0 6.0 0.00 0.00 0.00 32 1029.1
20180423003352 53 101 1.0 6.0 0.00 0.00 0.00 33 1029.1
20180423003248 53 101 1.0 6.0 0.00 0.00 0.00 32 1029.0
20180423003149 53 101 1.0 6.0 0.00 0.00 0.00 33 1029.0
20180423003048 53 101 1.0 6.0 0.00 0.00 0.00 32 1029.1
20180423003005 53 104 1.0 6.0 0.00 0.00 0.00 32 1029.1
20180423002903 53 104 1.0 6.0 0.00 0.00 0.00 32 1029.2
20180423002759 53 104 1.0 6.0 0.00 0.00 0.00 33 1029.0
20180423002656 53 112 2.0 6.0 0.00 0.00 0.00 32 1029.0
20180423002553 53 113 1.0 3.0 0.00 0.00 0.00 33 1029.0
20180423002457 53 112 1.0 3.0 0.00 0.00 0.00 33 1029.0
20180423002356 53 112 1.0 3.0 0.00 0.00 0.00 33 1029.1
20180423002256 54 112 2.0 3.0 0.00 0.00 0.00 32 1029.0
20180423002153 54 107 2.0 4.0 0.00 0.00 0.00 32 1029.0
20180423002050 54 107 2.0 6.0 0.00 0.00 0.00 32 1029.1
20180423001947 54 112 1.0 6.0 0.00 0.00 0.00 32 1028.9
20180423001846 54 104 1.0 6.0 0.00 0.00 0.00 32 1029.0
20180423001804 54 104 1.0 7.0 0.00 0.00 0.00 31 1029.0
20180423001701 54 104 1.0 7.0 0.00 0.00 0.00 31 1029.0
20180423001559 54 105 1.0 7.0 0.00 0.00 0.00 31 1028.9
20180423001456 54 98 2.0 7.0 0.00 0.00 0.00 31 1028.9
20180423001353 54 97 3.0 7.0 0.00 0.00 0.00 31 1029.0
20180423001250 54 114 3.0 7.0 0.00 0.00 0.00 31 1028.8
20180423001151 54 105 3.0 7.0 0.00 0.00 0.00 31 1028.9
20180423001047 54 93 3.0 7.0 0.00 0.00 0.00 30 1028.9
20180423001005 55 106 3.0 9.0 0.00 0.00 0.00 30 1028.9
20180423000902 55 117 3.0 9.0 0.00 0.00 0.00 30 1028.8
20180423000800 55 129 3.0 9.0 0.00 0.00 0.00 30 1028.9
20180423000656 55 113 2.0 9.0 0.00 0.00 0.00 30 1029.0
20180423000555 55 102 3.0 9.0 0.00 0.00 0.00 29 1028.9
20180423000454 55 106 3.0 9.0 0.00 0.00 0.00 29 1028.9
20180423000352 55 110 3.0 9.0 0.00 0.00 0.00 30 1028.9
20180423000249 55 117 4.0 9.0 0.00 0.00 0.00 29 1028.9
20180423000145 55 118 4.0 9.0 0.00 0.00 0.00 29 1028.8
20180423000102 55 114 3.0 9.0 0.00 0.00 0.00 29 1028.8
20180422235959 55 108 3.0 7.0 0.00 0.00 0.00 29 1028.8
20180422235856 55 118 3.0 8.0 0.00 0.00 0.00 29 1028.9
20180422235757 55 129 2.0 8.0 0.00 0.00 0.00 29 1028.9
20180422235655 56 119 3.0 8.0 0.00 0.00 0.00 29 1028.9
20180422235552 56 110 3.0 8.0 0.00 0.00 0.00 29 1028.9
20180422235449 56 135 3.0 8.0 0.00 0.00 0.00 29 1028.9
20180422235345 56 104 3.0 8.0 0.00 0.00 0.00 28 1028.9
20180422235302 56 114 3.0 8.0 0.00 0.00 0.00 28 1028.9
20180422235159 56 116 3.0 8.0 0.00 0.00 0.00 28 1028.9
20180422235100 56 115 3.0 8.0 0.00 0.00 0.00 27 1028.9
20180422234958 56 112 3.0 8.0 0.00 0.00 0.00 28 1028.9
20180422234855 56 121 3.0 8.0 0.00 0.00 0.00 28 1029.0
20180422234752 56 106 2.0 8.0 0.00 0.00 0.00 28 1028.9
20180422234649 56 120 3.0 8.0 0.00 0.00 0.00 28 1028.9
20180422234545 56 115 3.0 8.0 0.00 0.00 0.00 28 1028.9
20180422234503 56 118 2.0 8.0 0.00 0.00 0.00 28 1028.9
20180422234405 56 148 2.0 8.0 0.00 0.00 0.00 27 1028.9
20180422234302 57 100 3.0 8.0 0.00 0.00 0.00 27 1029.0
20180422234159 57 108 3.0 8.0 0.00 0.00 0.00 28 1029.0
20180422234055 57 112 4.0 8.0 0.00 0.00 0.00 27 1028.9
20180422233953 57 122 5.0 8.0 0.00 0.00 0.00 26 1028.9
20180422233850 57 121 4.0 8.0 0.00 0.00 0.00 27 1028.9
20180422233748 57 106 4.0 7.0 0.00 0.00 0.00 28 1028.9
20180422233647 57 81 3.0 7.0 0.00 0.00 0.00 28 1028.9
20180422233604 57 118 3.0 7.0 0.00 0.00 0.00 27 1028.9
20180422233502 57 129 2.0 7.0 0.00 0.00 0.00 27 1028.9
20180422233359 57 103 2.0 7.0 0.00 0.00 0.00 28 1029.0
20180422233256 57 111 3.0 7.0 0.00 0.00 0.00 26 1028.9
20180422233153 57 104 4.0 7.0 0.00 0.00 0.00 26 1029.0
20180422233051 57 107 4.0 7.0 0.00 0.00 0.00 25 1029.0
20180422232952 57 113 4.0 7.0 0.00 0.00 0.00 27 1029.1
20180422232849 58 126 3.0 7.0 0.00 0.00 0.00 26 1029.0
20180422232745 58 107 3.0 7.0 0.00 0.00 0.00 26 1029.0
20180422232703 58 106 2.0 7.0 0.00 0.00 0.00 26 1029.0
20180422232600 58 131 3.0 7.0 0.00 0.00 0.00 25 1029.0
20180422232456 58 119 3.0 7.0 0.00 0.00 0.00 24 1029.0
20180422232352 58 119 3.0 7.0 0.00 0.00 0.00 25 1029.0
20180422232254 58 112 3.0 7.0 0.00 0.00 0.00 25 1028.9
20180422232151 58 116 3.0 7.0 0.00 0.00 0.00 23 1029.0
20180422232048 58 118 5.0 8.0 0.00 0.00 0.00 23 1029.0
20180422231945 58 99 3.0 9.0 0.00 0.00 0.00 24 1029.0
20180422231903 58 104 2.0 9.0 0.00 0.00 0.00 24 1029.0
20180422231801 58 110 1.0 9.0 0.00 0.00 0.00 25 1029.1
20180422231658 58 108 2.0 9.0 0.00 0.00 0.00 25 1029.0
20180422231558 58 108 2.0 9.0 0.00 0.00 0.00 24 1029.0
20180422231455 59 108 2.0 9.0 0.00 0.00 0.00 23 1029.1
20180422231352 59 108 4.0 9.0 0.00 0.00 0.00 23 1028.9
20180422231250 59 141 5.0 9.0 0.00 0.00 0.00 24 1029.0
20180422231146 59 103 4.0 9.0 0.00 0.00 0.00 24 1028.9
20180422231103 59 122 3.0 9.0 0.00 0.00 0.00 24 1028.9
20180422231000 59 115 2.0 8.0 0.00 0.00 0.00 25 1028.9
20180422230902 59 102 2.0 8.0 0.00 0.00 0.00 24 1028.9
20180422230800 59 113 3.0 8.0 0.00 0.00 0.00 24 1028.9
20180422230658 59 104 5.0 8.0 0.00 0.00 0.00 22 1028.8
20180422230555 59 137 4.0 8.0 0.00 0.00 0.00 23 1028.8
20180422230452 59 104 4.0 8.0 0.00 0.00 0.00 24 1028.9
20180422230349 59 107 4.0 8.0 0.00 0.00 0.00 24 1028.9
20180422230250 59 97 4.0 8.0 0.00 0.00 0.00 24 1028.9
20180422230145 59 97 3.0 8.0 0.00 0.00 0.00 25 1028.9
20180422230103 59 116 3.0 10.0 0.00 0.00 0.00 25 1028.9
20180422230001 59 128 3.0 10.0 0.00 0.00 0.00 24 1028.9
20180422225857 59 114 3.0 10.0 0.00 0.00 0.00 25 1028.8
20180422225754 59 119 2.0 10.0 0.00 0.00 0.00 24 1028.8
20180422225650 59 113 2.0 10.0 0.00 0.00 0.00 25 1028.9
20180422225552 59 106 2.0 10.0 0.00 0.00 0.00 25 1028.9
20180422225449 59 100 3.0 10.0 0.00 0.00 0.00 25 1028.8
20180422225345 59 114 4.0 10.0 0.00 0.00 0.00 24 1028.8
20180422225303 59 70 4.0 10.0 0.00 0.00 0.00 24 1028.8
20180422225200 59 116 3.0 9.0 0.00 0.00 0.00 24 1028.8
20180422225057 59 111 4.0 9.0 0.00 0.00 0.00 24 1028.9
20180422224955 59 114 5.0 9.0 0.00 0.00 0.00 23 1028.9
20180422224856 59 118 4.0 9.0 0.00 0.00 0.00 24 1028.9
20180422224753 59 114 4.0 8.0 0.00 0.00 0.00 24 1028.9
20180422224650 59 100 3.0 8.0 0.00 0.00 0.00 25 1028.9
20180422224546 59 104 3.0 8.0 0.00 0.00 0.00 24 1028.8
20180422224504 59 104 3.0 8.0 0.00 0.00 0.00 26 1028.8
20180422224401 59 88 2.0 8.0 0.00 0.00 0.00 25 1028.9
20180422224300 59 104 3.0 10.0 0.00 0.00 0.00 25 1028.9
20180422224202 59 117 4.0 10.0 0.00 0.00 0.00 24 1028.9
20180422224059 59 118 4.0 10.0 0.00 0.00 0.00 24 1028.8
20180422223955 59 119 3.0 10.0 0.00 0.00 0.00 23 1028.9
20180422223851 59 132 3.0 10.0 0.00 0.00 0.00 25 1028.8
20180422223746 59 129 3.0 10.0 0.00 0.00 0.00 24 1028.9
20180422223704 59 108 4.0 10.0 0.00 0.00 0.00 24 1028.9
20180422223601 59 129 6.0 10.0 0.00 0.00 0.00 23 1028.9
20180422223502 59 115 5.0 10.0 0.00 0.00 0.00 23 1028.8
20180422223400 59 118 4.0 8.0 0.00 0.00 0.00 24 1028.9
20180422223256 59 97 4.0 9.0 0.00 0.00 0.00 23 1028.9
20180422223153 59 113 4.0 9.0 0.00 0.00 0.00 23 1028.9
20180422223050 59 121 4.0 9.0 0.00 0.00 0.00 24 1028.8
20180422222945 59 112 5.0 9.0 0.00 0.00 0.00 22 1028.8
20180422222903 59 106 5.0 11.0 0.00 0.00 0.00 22 1028.8
20180422222803 59 92 5.0 11.0 0.00 0.00 0.00 23 1028.8
20180422222659 59 156 4.0 11.0 0.00 0.00 0.00 24 1028.9
20180422222556 59 111 4.0 11.0 0.00 0.00 0.00 24 1028.9
20180422222452 59 145 5.0 11.0 0.00 0.00 0.00 23 1028.9
20180422222349 59 110 5.0 11.0 0.00 0.00 0.00 23 1028.9
20180422222247 59 113 6.0 11.0 0.00 0.00 0.00 23 1028.9
20180422222145 59 125 7.0 11.0 0.00 0.00 0.00 23 1028.9
20180422222045 59 130 7.0 11.0 0.00 0.00 0.00 23 1028.9
20180422222002 59 149 7.0 10.0 0.00 0.00 0.00 23 1028.9
20180422221859 59 131 7.0 10.0 0.00 0.00 0.00 23 1028.9
20180422221756 59 132 7.0 10.0 0.00 0.00 0.00 23 1029.0
20180422221652 60 112 5.0 10.0 0.00 0.00 0.00 23 1029.0
20180422221549 60 128 4.0 8.0 0.00 0.00 0.00 24 1029.0
20180422221446 60 136 3.0 8.0 0.00 0.00 0.00 24 1029.0
20180422221346 60 108 2.0 8.0 0.00 0.00 0.00 25 1029.0
20180422221303 60 108 1.0 8.0 0.00 0.00 0.00 26 1029.0
20180422221200 60 70 1.0 8.0 0.00 0.00 0.00 25 1029.0
20180422221057 60 65 2.0 10.0 0.00 0.00 0.00 25 1029.0
20180422220954 60 108 2.0 11.0 0.00 0.00 0.00 26 1029.0
20180422220851 60 89 3.0 11.0 0.00 0.00 0.00 25 1028.9
20180422220747 60 116 4.0 11.0 0.00 0.00 0.00 25 1029.0
20180422220649 60 100 3.0 11.0 0.00 0.00 0.00 25 1029.0
20180422220545 60 106 2.0 11.0 0.00 0.00 0.00 26 1029.0
20180422220504 60 136 2.0 11.0 0.00 0.00 0.00 26 1029.0
20180422220401 60 139 5.0 11.0 0.00 0.00 0.00 23 1029.0
20180422220257 60 112 7.0 11.0 0.00 0.00 0.00 23 1028.9
20180422220153 60 145 5.0 10.0 0.00 0.00 0.00 25 1029.0
20180422220050 60 98 5.0 11.0 0.00 0.00 0.00 25 1028.9
20180422215952 60 102 5.0 11.0 0.00 0.00 0.00 24 1029.0
20180422215848 60 93 4.0 11.0 0.00 0.00 0.00 25 1029.0
20180422215805 60 102 3.0 11.0 0.00 0.00 0.00 24 1029.0
20180422215702 60 131 4.0 12.0 0.00 0.00 0.00 24 1029.0
20180422215559 60 125 5.0 12.0 0.00 0.00 0.00 23 1029.1
20180422215457 60 152 7.0 12.0 0.00 0.00 0.00 23 1029.0
20180422215354 60 139 7.0 12.0 0.00 0.00 0.00 23 1029.0
20180422215255 60 131 7.0 12.0 0.00 0.00 0.00 23 1029.0
20180422215152 60 142 7.0 12.0 0.00 0.00 0.00 23 1029.0
20180422215048 60 121 5.0 12.0 0.00 0.00 0.00 24 1029.0
20180422214944 60 120 6.0 12.0 0.00 0.00 0.00 24 1029.0
20180422214903 60 125 6.0 12.0 0.00 0.00 0.00 24 1029.0
20180422214759 60 131 6.0 11.0 0.00 0.00 0.00 24 1029.0
20180422214655 60 97 4.0 13.0 0.00 0.00 0.00 25 1029.1
20180422214556 60 107 3.0 13.0 0.00 0.00 0.00 26 1029.1
20180422214456 60 68 2.0 13.0 0.00 0.00 0.00 27 1029.0
20180422214357 60 98 3.0 13.0 0.00 0.00 0.00 26 1029.1
20180422214257 60 121 4.0 13.0 0.00 0.00 0.00 25 1029.0
20180422214154 60 97 5.0 13.0 0.00 0.00 0.00 26 1029.1
20180422214051 60 151 5.0 13.0 0.00 0.00 0.00 26 1029.1
20180422213954 60 135 7.0 13.0 0.00 0.00 0.00 25 1029.1
20180422213852 60 150 10.0 13.0 0.00 0.00 0.00 24 1029.0
20180422213749 60 154 8.0 13.0 0.00 0.00 0.00 25 1029.1
20180422213645 61 154 4.0 11.0 0.00 0.00 0.00 25 1029.0
20180422213604 61 110 4.0 11.0 0.00 0.00 0.00 25 1029.0
20180422213502 61 137 6.0 12.0 0.00 0.00 0.00 24 1029.0
20180422213359 61 135 7.0 12.0 0.00 0.00 0.00 24 1029.1
20180422213301 61 118 6.0 12.0 0.00 0.00 0.00 24 1029.1
20180422213159 61 154 6.0 12.0 0.00 0.00 0.00 26 1029.1
20180422213059 61 114 6.0 12.0 0.00 0.00 0.00 24 1029.1
20180422212956 61 158 5.0 12.0 0.00 0.00 0.00 27 1029.1
20180422212855 61 108 7.0 12.0 0.00 0.00 0.00 26 1029.1
20180422212754 62 108 6.0 12.0 0.00 0.00 0.00 25 1029.1
20180422212654 61 131 3.0 8.0 0.00 0.00 0.00 26 1029.1
20180422212557 61 105 3.0 7.0 0.00 0.00 0.00 27 1029.1
20180422212454 61 111 2.0 7.0 0.00 0.00 0.00 27 1029.1
20180422212350 61 104 2.0 12.0 0.00 0.00 0.00 27 1029.1
20180422212248 61 107 2.0 12.0 0.00 0.00 0.00 28 1029.1
20180422212148 61 134 3.0 12.0 0.00 0.00 0.00 29 1029.1
20180422212048 61 123 3.0 12.0 0.00 0.00 0.00 29 1029.1
20180422211953 61 90 2.0 12.0 0.00 0.00 0.00 28 1029.1
20180422211849 61 81 1.0 12.0 0.00 0.00 0.00 28 1029.1
20180422211745 61 93 2.0 12.0 0.00 0.00 0.00 28 1029.2
20180422211703 61 91 4.0 12.0 0.00 0.00 0.00 28 1029.2
20180422211600 61 104 6.0 12.0 0.00 0.00 0.00 25 1029.1
20180422211459 61 124 8.0 12.0 0.00 0.00 0.00 26 1029.2
20180422211400 61 118 7.0 11.0 0.00 0.00 0.00 27 1029.0
20180422211300 61 130 5.0 11.0 0.00 0.00 0.00 28 1029.1
20180422211200 61 115 4.0 11.0 0.00 0.00 0.00 27 1029.0
20180422211100 61 128 3.0 11.0 0.00 0.00 0.00 28 1029.1
20180422211001 61 118 4.0 11.0 0.00 0.00 0.00 28 1029.1
20180422210859 61 100 4.0 11.0 0.00 0.00 0.00 28 1029.1
20180422210756 61 115 3.0 11.0 0.00 0.00 0.00 28 1029.2
20180422210653 61 118 4.0 11.0 0.00 0.00 0.00 27 1029.1
20180422210554 61 117 7.0 11.0 0.00 0.00 0.00 27 1029.1
20180422210452 61 114 5.0 11.0 0.00 0.00 0.00 27 1029.1
20180422210348 61 105 2.0 9.0 0.00 0.00 0.00 27 1029.1
20180422210245 61 119 2.0 9.0 0.00 0.00 0.00 25 1029.2
20180422210144 61 174 2.0 9.0 0.00 0.00 0.00 27 1029.1
20180422210045 61 197 3.0 9.0 0.00 0.00 0.00 25 1029.1